M I D A S
Marine Information and Data Acquisition System
Tripno 1046 of the Zeeleeuw from 2006-03-08 07:44:13 to 2006-03-08 13:42:24
Back to CruiseResearch ActivitiesStationsMapUnderway DataData graphs

EquipmentUnitsComment
TimeDGPSUTC
LatitudeDGPSDM.mWGS84
LongitudeDGPSDM.mWGS84
TemperatureSBE03/SBE38deg celciusITS90
ConductivitySBE21S/mITS90
SalinitySBE21 Practical Salinity Units
ChlorophylAChelsea fluorimeterg/lCalibrated in Aceton
Missing or incorrect values are displayed as -999
Sea surface data collected by the RV Zeeleeuw from 2006-03-08 07:41:22 to 2006-03-08 13:45:06
                                                                                    Next 1000 lines
Time Latitude Longitude Temperature Conductivity Salinity ChlorophylA
2006-03-08 07:41:33 51°13.597 2°56.094 -999 0.491974 3.176021 23.287264
2006-03-08 07:41:38 51°13.597 2°56.094 -999 0.491974 3.176084 23.287264
2006-03-08 07:41:43 51°13.597 2°56.094 -999 0.491974 3.176084 23.253554
2006-03-08 07:41:48 51°13.597 2°56.093 -999 0.491974 3.176084 23.253554
2006-03-08 07:41:53 51°13.597 2°56.093 -999 0.491974 3.176084 23.253554
2006-03-08 07:41:58 51°13.597 2°56.093 -999 0.491974 3.176084 23.253554
2006-03-08 07:42:03 51°13.597 2°56.093 -999 0.491974 3.176147 23.219845
2006-03-08 07:42:08 51°13.597 2°56.093 -999 0.491974 3.176147 23.219845
2006-03-08 07:42:13 51°13.597 2°56.093 -999 0.492077 3.176855 23.219845
2006-03-08 07:42:18 51°13.597 2°56.092 -999 0.492077 3.176855 23.219845
2006-03-08 07:42:23 51°13.597 2°56.092 -999 0.492077 3.176919 23.186136
2006-03-08 07:42:28 51°13.597 2°56.092 -999 0.492077 3.176919 23.219845
2006-03-08 07:42:33 51°13.597 2°56.091 -999 0.492077 3.176982 23.287264
2006-03-08 07:42:38 51°13.596 2°56.091 -999 0.491974 3.176273 23.287264
2006-03-08 07:42:43 51°13.596 2°56.092 -999 0.491974 3.176273 23.388392
2006-03-08 07:42:48 51°13.596 2°56.093 -999 0.491974 3.176273 23.388392
2006-03-08 07:42:53 51°13.595 2°56.094 -999 0.491974 3.176273 23.422101
2006-03-08 07:42:58 51°13.593 2°56.097 -999 0.491974 3.176273 23.556939
2006-03-08 07:43:03 51°13.591 2°56.1 -999 0.491974 3.176273 23.354683
2006-03-08 07:43:08 51°13.589 2°56.104 -999 0.491974 3.176273 23.186136
2006-03-08 07:43:13 51°13.587 2°56.108 -999 0.491974 3.176273 23.287264
2006-03-08 07:43:18 51°13.584 2°56.113 -999 0.491974 3.176273 23.287264
2006-03-08 07:43:23 51°13.581 2°56.118 -999 0.491974 3.176336 23.186136
2006-03-08 07:43:28 51°13.578 2°56.122 -999 0.491974 3.176336 23.219845
2006-03-08 07:43:33 51°13.575 2°56.127 -999 0.491974 3.176399 23.287264
2006-03-08 07:43:38 51°13.572 2°56.132 -999 0.491974 3.176463 23.085007
2006-03-08 07:43:42 51°13.569 2°56.137 -999 0.491974 3.176463 23.186136
2006-03-08 07:43:48 51°13.565 2°56.143 -999 0.491974 3.176463 23.186136
2006-03-08 07:43:53 51°13.561 2°56.148 -999 0.491974 3.176463 23.152426
2006-03-08 07:43:58 51°13.557 2°56.153 -999 0.491974 3.176463 23.253554
2006-03-08 07:44:03 51°13.553 2°56.159 -999 0.491974 3.176526 23.219845
2006-03-08 07:44:08 51°13.549 2°56.164 -999 0.491974 3.176526 23.186136
2006-03-08 07:44:13 51°13.545 2°56.169 -999 0.491974 3.176526 23.759195
2006-03-08 07:44:18 51°13.541 2°56.175 -999 0.491974 3.176526 23.759195
2006-03-08 07:44:23 51°13.536 2°56.183 -999 0.492077 3.177171 22.91646
2006-03-08 07:44:28 51°13.533 2°56.19 -999 0.492077 3.177297 22.714204
2006-03-08 07:44:33 51°13.53 2°56.198 -999 0.492077 3.177297 22.781623
2006-03-08 07:44:38 51°13.528 2°56.206 -999 0.492077 3.177234 22.579366
2006-03-08 07:44:43 51°13.526 2°56.214 -999 0.491974 3.176463 22.579366
2006-03-08 07:44:48 51°13.525 2°56.222 -999 0.491974 3.176463 22.579366
2006-03-08 07:44:53 51°13.524 2°56.229 -999 0.491974 3.176526 22.714204
2006-03-08 07:44:58 51°13.524 2°56.237 -999 0.491974 3.176589 22.579366
2006-03-08 07:45:03 51°13.524 2°56.244 -999 0.491974 3.176715 22.511947
2006-03-08 07:45:08 51°13.525 2°56.25 -999 0.491974 3.176778 22.478238
2006-03-08 07:45:13 51°13.525 2°56.255 -999 0.491974 3.176841 22.275982
2006-03-08 07:45:18 51°13.526 2°56.257 -999 0.491974 3.176841 22.275982
2006-03-08 07:45:22 51°13.526 2°56.259 -999 0.491974 3.176904 22.37711
2006-03-08 07:45:28 51°13.526 2°56.259 -999 0.491974 3.176904 20.995024
2006-03-08 07:45:33 51°13.525 2°56.258 -999 0.491974 3.176904 13.882341
2006-03-08 07:45:38 51°13.524 2°56.256 -999 0.491974 3.17703 13.680084
2006-03-08 07:45:42 51°13.524 2°56.253 -999 0.491974 3.17703 13.680084
2006-03-08 07:45:48 51°13.523 2°56.25 -999 0.491974 3.17703 13.680084
2006-03-08 07:45:53 51°13.522 2°56.248 -999 0.491974 3.17703 13.680084
2006-03-08 07:45:58 51°13.522 2°56.246 -999 0.491974 3.17703 13.680084
2006-03-08 07:46:03 51°13.521 2°56.244 -999 0.491974 3.176967 13.646375
2006-03-08 07:46:08 51°13.521 2°56.243 -999 0.491974 3.176904 13.646375
2006-03-08 07:46:13 51°13.521 2°56.243 -999 0.491974 3.176841 13.646375
2006-03-08 07:46:18 51°13.522 2°56.244 -999 0.491974 3.176841 13.646375
2006-03-08 07:46:23 51°13.522 2°56.245 -999 0.491871 3.176133 13.646375
2006-03-08 07:46:28 51°13.523 2°56.247 -999 0.491974 3.176778 13.612665
2006-03-08 07:46:32 51°13.524 2°56.249 -999 0.491974 3.176841 13.646375
2006-03-08 07:46:39 51°13.527 2°56.252 -999 0.491871 3.176196 13.646375
2006-03-08 07:46:43 51°13.529 2°56.254 -999 0.491871 3.176196 13.646375
2006-03-08 07:46:48 51°13.531 2°56.256 -999 0.491871 3.176196 13.646375
2006-03-08 07:46:52 51°13.532 2°56.257 -999 0.491974 3.176904 13.646375
2006-03-08 07:46:58 51°13.533 2°56.258 -999 0.491871 3.176196 13.646375
2006-03-08 07:47:03 51°13.533 2°56.259 -999 0.491871 3.176196 13.646375
2006-03-08 07:47:08 51°13.533 2°56.259 -999 0.491871 3.176196 17.219571
2006-03-08 07:47:12 51°13.532 2°56.259 -999 0.491871 3.176196 13.781212
2006-03-08 07:47:18 51°13.531 2°56.258 -999 0.491871 3.176196 13.781212
2006-03-08 07:47:23 51°13.529 2°56.257 -999 0.491871 3.176259 13.713794
2006-03-08 07:47:28 51°13.527 2°56.256 -999 0.491871 3.176322 13.713794
2006-03-08 07:47:33 51°13.525 2°56.256 -999 0.491871 3.176385 13.747503
2006-03-08 07:47:38 51°13.523 2°56.255 -999 0.491871 3.176385 13.713794
2006-03-08 07:47:43 51°13.522 2°56.255 -999 0.491871 3.176385 13.713794
2006-03-08 07:47:48 51°13.521 2°56.255 -999 0.491871 3.176385 13.713794
2006-03-08 07:47:53 51°13.521 2°56.255 -999 0.491871 3.176385 13.713794
2006-03-08 07:47:58 51°13.521 2°56.255 -999 0.491871 3.176322 13.680084
2006-03-08 07:48:03 51°13.521 2°56.255 -999 0.491871 3.176259 13.680084
2006-03-08 07:48:08 51°13.522 2°56.255 -999 0.491871 3.176259 13.680084
2006-03-08 07:48:13 51°13.523 2°56.254 -999 0.491871 3.176259 13.680084
2006-03-08 07:48:18 51°13.525 2°56.254 -999 0.491871 3.176259 13.680084
2006-03-08 07:48:23 51°13.527 2°56.254 -999 0.491871 3.176259 13.680084
2006-03-08 07:48:28 51°13.528 2°56.254 -999 0.491871 3.176322 13.680084
2006-03-08 07:48:33 51°13.53 2°56.254 -999 0.491871 3.176322 13.680084
2006-03-08 07:48:38 51°13.531 2°56.254 -999 0.491871 3.176385 13.680084
2006-03-08 07:48:43 51°13.531 2°56.255 -999 0.491871 3.176385 13.680084
2006-03-08 07:48:48 51°13.531 2°56.256 -999 0.491871 3.176385 13.680084
2006-03-08 07:48:53 51°13.53 2°56.256 -999 0.491871 3.176448 13.680084
2006-03-08 07:48:58 51°13.529 2°56.258 -999 0.491871 3.176448 13.747503
2006-03-08 07:49:03 51°13.528 2°56.259 -999 0.491871 3.176448 13.781212
2006-03-08 07:49:08 51°13.527 2°56.26 -999 0.491871 3.176448 13.781212
2006-03-08 07:49:13 51°13.527 2°56.261 -999 0.491871 3.176448 13.747503
2006-03-08 07:49:18 51°13.526 2°56.262 -999 0.491871 3.176448 13.747503
2006-03-08 07:49:23 51°13.526 2°56.262 -999 0.491871 3.176511 13.747503
2006-03-08 07:49:28 51°13.527 2°56.262 -999 0.491871 3.176448 13.747503
2006-03-08 07:49:33 51°13.528 2°56.262 -999 0.491871 3.176448 13.747503
2006-03-08 07:49:38 51°13.529 2°56.26 -999 0.491871 3.176385 13.747503
2006-03-08 07:49:43 51°13.53 2°56.258 -999 0.491871 3.176385 13.713794
2006-03-08 07:49:48 51°13.532 2°56.255 -999 0.491871 3.176385 13.713794
2006-03-08 07:49:53 51°13.534 2°56.251 -999 0.491871 3.176322 13.713794
2006-03-08 07:49:58 51°13.536 2°56.246 -999 0.491871 3.176385 13.713794
2006-03-08 07:50:03 51°13.537 2°56.24 -999 0.491871 3.176385 13.713794
2006-03-08 07:50:08 51°13.539 2°56.233 -999 0.491871 3.176385 13.713794
2006-03-08 07:50:13 51°13.541 2°56.224 -999 0.491871 3.176322 13.747503
2006-03-08 07:50:18 51°13.543 2°56.214 -999 0.491871 3.176322 13.747503
2006-03-08 07:50:23 51°13.545 2°56.203 -999 0.491871 3.176385 13.747503
2006-03-08 07:50:28 51°13.548 2°56.191 -999 0.491871 3.176385 13.713794
2006-03-08 07:50:33 51°13.551 2°56.179 -999 0.491871 3.176448 13.814922
2006-03-08 07:50:38 51°13.554 2°56.166 -999 0.491871 3.176574 22.849042
2006-03-08 07:50:43 51°13.557 2°56.153 -999 0.491871 3.176637 22.91646
2006-03-08 07:50:48 51°13.561 2°56.14 -999 0.491871 3.176637 22.91646
2006-03-08 07:50:53 51°13.565 2°56.127 -999 0.491871 3.176763 22.3434
2006-03-08 07:50:58 51°13.569 2°56.114 -999 0.491871 3.176763 22.579366
2006-03-08 07:51:03 51°13.573 2°56.101 -999 0.491871 3.1767 22.579366
2006-03-08 07:51:08 51°13.577 2°56.088 -999 0.491871 3.1767 22.478238
2006-03-08 07:51:13 51°13.582 2°56.076 -999 0.491871 3.1767 22.511947
2006-03-08 07:51:18 51°13.587 2°56.064 -999 0.491871 3.1767 22.511947
2006-03-08 07:51:23 51°13.592 2°56.052 -999 0.491871 3.1767 22.882751
2006-03-08 07:51:28 51°13.597 2°56.039 -999 0.491871 3.1767 22.91646
2006-03-08 07:51:33 51°13.602 2°56.027 -999 0.491871 3.176763 22.882751
2006-03-08 07:51:38 51°13.607 2°56.016 -999 0.491871 3.176763 22.882751
2006-03-08 07:51:43 51°13.613 2°56.005 -999 0.491871 3.176763 22.849042
2006-03-08 07:51:48 51°13.618 2°55.993 -999 0.491871 3.176763 22.849042
2006-03-08 07:51:53 51°13.623 2°55.981 -999 0.491871 3.176763 22.849042
2006-03-08 07:51:58 51°13.629 2°55.969 -999 0.491871 3.1767 22.91646
2006-03-08 07:52:03 51°13.634 2°55.957 -999 0.491871 3.1767 22.849042
2006-03-08 07:52:08 51°13.639 2°55.945 -999 0.491871 3.1767 22.882751
2006-03-08 07:52:13 51°13.644 2°55.932 -999 0.491871 3.1767 22.95017
2006-03-08 07:52:18 51°13.649 2°55.92 -999 0.491871 3.1767 22.95017
2006-03-08 07:52:23 51°13.654 2°55.908 -999 0.491871 3.176763 22.882751
2006-03-08 07:52:28 51°13.66 2°55.896 -999 0.491871 3.176763 22.91646
2006-03-08 07:52:33 51°13.665 2°55.884 -999 0.491871 3.1767 22.815332
2006-03-08 07:52:38 51°13.671 2°55.872 -999 0.491871 3.176763 22.849042
2006-03-08 07:52:43 51°13.676 2°55.86 -999 0.491871 3.1767 22.882751
2006-03-08 07:52:48 51°13.681 2°55.848 -999 0.491871 3.1767 22.882751
2006-03-08 07:52:53 51°13.687 2°55.836 -999 0.491871 3.176763 22.882751
2006-03-08 07:52:58 51°13.693 2°55.825 -999 0.491871 3.1767 22.849042
2006-03-08 07:53:03 51°13.698 2°55.813 -999 0.491871 3.1767 22.849042
2006-03-08 07:53:08 51°13.704 2°55.802 -999 0.491871 3.1767 22.646785
2006-03-08 07:53:13 51°13.71 2°55.791 -999 0.491871 3.1767 22.747913
2006-03-08 07:53:18 51°13.716 2°55.78 -999 0.491871 3.1767 22.747913
2006-03-08 07:53:23 51°13.722 2°55.769 -999 0.491871 3.1767 22.983879
2006-03-08 07:53:28 51°13.728 2°55.758 -999 0.491871 3.176763 23.017589
2006-03-08 07:53:33 51°13.734 2°55.747 -999 0.491871 3.1767 22.073725
2006-03-08 07:53:38 51°13.74 2°55.736 -999 0.491871 3.1767 22.849042
2006-03-08 07:53:43 51°13.746 2°55.726 -999 0.491871 3.176763 22.478238
2006-03-08 07:53:48 51°13.753 2°55.716 -999 0.491871 3.176763 22.478238
2006-03-08 07:53:53 51°13.76 2°55.707 -999 0.491871 3.176763 22.747913
2006-03-08 07:53:58 51°13.767 2°55.698 -999 0.491871 3.176763 22.3434
2006-03-08 07:54:03 51°13.774 2°55.689 -999 0.491871 3.176827 23.152426
2006-03-08 07:54:08 51°13.781 2°55.681 -999 0.491871 3.176763 22.983879
2006-03-08 07:54:12 51°13.787 2°55.674 -999 0.491871 3.176763 23.354683
2006-03-08 07:54:18 51°13.796 2°55.665 -999 0.491871 3.176763 23.354683
2006-03-08 07:54:23 51°13.804 2°55.658 -999 0.491871 3.176763 21.770341
2006-03-08 07:54:28 51°13.812 2°55.651 -999 0.491768 3.176055 22.882751
2006-03-08 07:54:33 51°13.82 2°55.645 -999 0.491871 3.176763 23.354683
2006-03-08 07:54:38 51°13.828 2°55.639 -999 0.491871 3.176827 23.118717
2006-03-08 07:54:43 51°13.836 2°55.632 -999 0.491768 3.176055 23.085007
2006-03-08 07:54:48 51°13.844 2°55.626 -999 0.491768 3.176055 23.085007
2006-03-08 07:54:53 51°13.852 2°55.62 -999 0.491768 3.176118 23.219845
2006-03-08 07:54:58 51°13.86 2°55.613 -999 0.491768 3.176118 23.118717
2006-03-08 07:55:03 51°13.868 2°55.605 -999 0.491768 3.176118 23.118717
2006-03-08 07:55:08 51°13.876 2°55.601 -999 0.491768 3.176118 23.085007
2006-03-08 07:55:13 51°13.885 2°55.595 -999 0.491768 3.176118 23.118717
2006-03-08 07:55:18 51°13.893 2°55.59 -999 0.491768 3.176118 23.118717
2006-03-08 07:55:23 51°13.902 2°55.584 -999 0.491768 3.176118 23.051298
2006-03-08 07:55:28 51°13.91 2°55.578 -999 0.491768 3.176118 23.118717
2006-03-08 07:55:33 51°13.918 2°55.573 -999 0.491768 3.176118 23.051298
2006-03-08 07:55:38 51°13.927 2°55.567 -999 0.491768 3.176118 23.085007
2006-03-08 07:55:43 51°13.936 2°55.56 -999 0.491768 3.176181 23.051298
2006-03-08 07:55:48 51°13.944 2°55.554 -999 0.491768 3.176181 23.051298
2006-03-08 07:55:53 51°13.953 2°55.547 -999 0.491768 3.176181 22.242272
2006-03-08 07:55:58 51°13.962 2°55.541 -999 0.491768 3.176181 22.815332
2006-03-08 07:56:03 51°13.971 2°55.534 -999 0.491768 3.176181 22.747913
2006-03-08 07:56:08 51°13.98 2°55.528 -999 0.491768 3.176181 23.085007
2006-03-08 07:56:13 51°13.989 2°55.521 -999 0.491768 3.176181 23.085007
2006-03-08 07:56:18 51°13.999 2°55.515 -999 0.491768 3.176181 23.085007
2006-03-08 07:56:23 51°14.009 2°55.508 -999 0.491768 3.176181 23.017589
2006-03-08 07:56:28 51°14.019 2°55.501 -999 0.491768 3.176181 22.91646
2006-03-08 07:56:33 51°14.029 2°55.494 -999 0.491768 3.176181 23.48952
2006-03-08 07:56:38 51°14.039 2°55.487 -999 0.491768 3.176181 22.107435
2006-03-08 07:56:43 51°14.049 2°55.479 -999 0.491768 3.176181 23.152426
2006-03-08 07:56:48 51°14.059 2°55.472 -999 0.491768 3.176181 23.152426
2006-03-08 07:56:52 51°14.068 2°55.466 -999 0.491768 3.176244 23.085007
2006-03-08 07:56:58 51°14.08 2°55.456 -999 0.491768 3.176244 22.208563
2006-03-08 07:57:03 51°14.091 2°55.448 -999 0.491768 3.176244 23.085007
2006-03-08 07:57:08 51°14.101 2°55.44 -999 0.491768 3.176244 22.882751
2006-03-08 07:57:12 51°14.11 2°55.433 -999 0.491768 3.176181 23.455811
2006-03-08 07:57:18 51°14.123 2°55.423 -999 0.491768 3.176181 23.455811
2006-03-08 07:57:22 51°14.132 2°55.416 -999 0.491768 3.176244 23.422101
2006-03-08 07:57:28 51°14.145 2°55.404 -999 0.491665 3.175536 23.961452
2006-03-08 07:57:32 51°14.154 2°55.397 -999 0.491768 3.176307 22.95017
2006-03-08 07:57:38 51°14.167 2°55.385 -999 0.491665 3.175599 22.545657
2006-03-08 07:57:42 51°14.175 2°55.377 -999 0.491665 3.175599 22.444529
2006-03-08 07:57:48 51°14.188 2°55.363 -999 0.491665 3.175599 22.444529
2006-03-08 07:57:52 51°14.197 2°55.354 -999 0.491665 3.175599 22.478238
2006-03-08 07:57:58 51°14.209 2°55.339 -999 0.491665 3.175599 22.37711
2006-03-08 07:58:02 51°14.217 2°55.329 -999 0.491665 3.175536 22.511947
2006-03-08 07:58:08 51°14.229 2°55.313 -999 0.491665 3.175536 22.511947
2006-03-08 07:58:12 51°14.237 2°55.302 -999 0.491665 3.175599 22.478238
2006-03-08 07:58:18 51°14.248 2°55.284 -999 0.491665 3.175599 22.478238
2006-03-08 07:58:23 51°14.258 2°55.269 -999 0.491665 3.175599 22.680494
2006-03-08 07:58:28 51°14.268 2°55.252 -999 0.491665 3.175599 22.646785
2006-03-08 07:58:33 51°14.277 2°55.234 -999 0.491665 3.175599 23.051298
2006-03-08 07:58:38 51°14.287 2°55.216 -999 0.491665 3.175599 23.017589
2006-03-08 07:58:43 51°14.297 2°55.197 -999 0.491665 3.175599 22.579366
2006-03-08 07:58:48 51°14.307 2°55.178 -999 0.491665 3.175599 22.579366
2006-03-08 07:58:53 51°14.318 2°55.159 -999 0.491665 3.175599 22.646785
2006-03-08 07:58:58 51°14.328 2°55.139 -999 0.491665 3.175599 22.747913
2006-03-08 07:59:03 51°14.339 2°55.118 -999 0.491665 3.175662 22.444529
2006-03-08 07:59:08 51°14.348 2°55.096 -999 0.491665 3.175662 22.006306
2006-03-08 07:59:12 51°14.356 2°55.079 -999 0.491665 3.175662 21.837759
2006-03-08 07:59:18 51°14.369 2°55.053 -999 0.491665 3.175662 21.837759
2006-03-08 07:59:22 51°14.377 2°55.036 -999 0.491665 3.175599 21.770341
2006-03-08 07:59:28 51°14.39 2°55.01 -999 0.491665 3.175599 22.040016
2006-03-08 07:59:33 51°14.4 2°54.988 -999 0.491665 3.175662 22.040016
2006-03-08 07:59:38 51°14.411 2°54.966 -999 0.491665 3.175662 21.702922
2006-03-08 07:59:43 51°14.421 2°54.944 -999 0.491665 3.175725 23.52323
2006-03-08 07:59:48 51°14.431 2°54.922 -999 0.491665 3.175725 23.52323
2006-03-08 07:59:52 51°14.439 2°54.904 -999 0.491665 3.175725 22.107435
2006-03-08 07:59:58 51°14.451 2°54.877 -999 0.491665 3.175662 22.073725
2006-03-08 08:00:02 51°14.46 2°54.859 -999 0.491665 3.175662 22.073725
2006-03-08 08:00:08 51°14.473 2°54.834 -999 0.491562 3.17489 22.040016
2006-03-08 08:00:12 51°14.482 2°54.817 -999 0.491562 3.174953 22.040016
2006-03-08 08:00:18 51°14.495 2°54.792 -999 0.491562 3.174953 22.040016
2006-03-08 08:00:23 51°14.506 2°54.771 -999 0.491562 3.175016 22.141144
2006-03-08 08:00:28 51°14.516 2°54.75 -999 0.491562 3.175016 22.006306
2006-03-08 08:00:32 51°14.524 2°54.733 -999 0.491562 3.175016 22.680494
2006-03-08 08:00:38 51°14.536 2°54.707 -999 0.491562 3.175016 22.006306
2006-03-08 08:00:43 51°14.546 2°54.685 -999 0.491562 3.174953 21.972597
2006-03-08 08:00:48 51°14.557 2°54.663 -999 0.491562 3.174953 21.972597
2006-03-08 08:00:53 51°14.568 2°54.642 -999 0.491562 3.174953 21.938888
2006-03-08 08:00:58 51°14.579 2°54.621 -999 0.491562 3.174953 21.905178
2006-03-08 08:01:02 51°14.589 2°54.604 -999 0.491562 3.175016 21.871469
2006-03-08 08:01:08 51°14.603 2°54.58 -999 0.491562 3.175079 22.174853
2006-03-08 08:01:12 51°14.613 2°54.563 -999 0.491562 3.175079 22.174853
2006-03-08 08:01:18 51°14.628 2°54.539 -999 0.491562 3.175079 22.174853
2006-03-08 08:01:23 51°14.641 2°54.519 -999 0.491562 3.175016 22.141144
2006-03-08 08:01:28 51°14.654 2°54.5 -999 0.491562 3.175016 22.107435
2006-03-08 08:01:33 51°14.666 2°54.479 -999 0.491562 3.175016 23.017589
2006-03-08 08:01:38 51°14.678 2°54.458 -999 0.491562 3.175079 23.253554
2006-03-08 08:01:42 51°14.687 2°54.441 -999 0.491562 3.175079 21.837759
2006-03-08 08:01:48 51°14.699 2°54.414 -999 0.491562 3.175079 21.837759
2006-03-08 08:01:52 51°14.707 2°54.396 -999 0.491562 3.175016 22.174853
2006-03-08 08:01:58 51°14.72 2°54.369 -999 0.491562 3.174953 22.511947
2006-03-08 08:02:02 51°14.728 2°54.35 -999 0.491562 3.174953 22.309691
2006-03-08 08:02:08 51°14.739 2°54.323 -999 0.491562 3.175016 22.545657
2006-03-08 08:02:13 51°14.749 2°54.299 -999 0.491562 3.175079 22.983879
2006-03-08 08:02:18 51°14.758 2°54.275 -999 0.491562 3.175079 22.983879
2006-03-08 08:02:22 51°14.765 2°54.256 -999 0.491459 3.174371 21.702922
2006-03-08 08:02:28 51°14.776 2°54.228 -999 0.491459 3.174371 21.871469
2006-03-08 08:02:32 51°14.783 2°54.208 -999 0.491459 3.174371 22.174853
2006-03-08 08:02:38 51°14.794 2°54.18 -999 0.491459 3.174371 22.141144
2006-03-08 08:02:43 51°14.804 2°54.156 -999 0.491459 3.174371 22.208563
2006-03-08 08:02:48 51°14.813 2°54.132 -999 0.491459 3.174371 22.208563
2006-03-08 08:02:53 51°14.823 2°54.109 -999 0.491459 3.174371 22.174853
2006-03-08 08:02:58 51°14.832 2°54.085 -999 0.491459 3.174371 21.736631
2006-03-08 08:03:03 51°14.842 2°54.062 -999 0.491459 3.174434 22.646785
2006-03-08 08:03:08 51°14.851 2°54.038 -999 0.491459 3.174434 22.680494
2006-03-08 08:03:12 51°14.858 2°54.018 -999 0.491459 3.174434 22.410819
2006-03-08 08:03:18 51°14.869 2°53.989 -999 0.491459 3.174434 22.410819
2006-03-08 08:03:23 51°14.877 2°53.964 -999 0.491459 3.174434 22.579366
2006-03-08 08:03:28 51°14.886 2°53.94 -999 0.491459 3.174371 21.635503
2006-03-08 08:03:33 51°14.894 2°53.915 -999 0.491459 3.174371 21.770341
2006-03-08 08:03:38 51°14.902 2°53.89 -999 0.491459 3.174308 22.141144
2006-03-08 08:03:42 51°14.908 2°53.87 -999 0.491459 3.174371 22.37711
2006-03-08 08:03:48 51°14.918 2°53.84 -999 0.491459 3.174371 22.37711
2006-03-08 08:03:52 51°14.925 2°53.82 -999 0.491459 3.174434 22.107435
2006-03-08 08:03:58 51°14.935 2°53.79 -999 0.491459 3.174434 21.80405
2006-03-08 08:04:03 51°14.944 2°53.765 -999 0.491459 3.174434 21.905178
2006-03-08 08:04:08 51°14.952 2°53.741 -999 0.491459 3.174434 22.174853
2006-03-08 08:04:12 51°14.96 2°53.721 -999 0.491459 3.174497 22.242272
2006-03-08 08:04:18 51°14.971 2°53.692 -999 0.491459 3.174497 22.242272
2006-03-08 08:04:22 51°14.978 2°53.672 -999 0.491459 3.174497 21.905178
2006-03-08 08:04:28 51°14.989 2°53.643 -999 0.491459 3.174497 21.669212
2006-03-08 08:04:33 51°14.998 2°53.618 -999 0.491459 3.17456 22.444529
2006-03-08 08:04:38 51°15.007 2°53.594 -999 0.491459 3.17456 22.107435
2006-03-08 08:04:43 51°15.016 2°53.569 -999 0.491459 3.17456 22.242272
2006-03-08 08:04:48 51°15.025 2°53.544 -999 0.491459 3.17456 22.242272
2006-03-08 08:04:52 51°15.032 2°53.524 -999 0.491459 3.17456 22.040016
2006-03-08 08:04:58 51°15.043 2°53.495 -999 0.491459 3.17456 22.511947
2006-03-08 08:05:03 51°15.052 2°53.47 -999 0.491459 3.17456 21.972597
2006-03-08 08:05:08 51°15.061 2°53.445 -999 0.491459 3.17456 22.309691
2006-03-08 08:05:13 51°15.071 2°53.42 -999 0.491459 3.174623 22.309691
2006-03-08 08:05:18 51°15.08 2°53.396 -999 0.491459 3.174623 22.309691
2006-03-08 08:05:23 51°15.089 2°53.371 -999 0.491459 3.174623 22.309691
2006-03-08 08:05:28 51°15.098 2°53.347 -999 0.491459 3.174686 22.275982
2006-03-08 08:05:32 51°15.106 2°53.328 -999 0.491459 3.174686 22.208563
2006-03-08 08:05:38 51°15.117 2°53.298 -999 0.491459 3.174686 22.174853
2006-03-08 08:05:43 51°15.127 2°53.274 -999 0.491459 3.174749 21.972597
2006-03-08 08:05:48 51°15.136 2°53.249 -999 0.491459 3.174749 21.972597
2006-03-08 08:05:53 51°15.145 2°53.225 -999 0.491459 3.174749 21.871469
2006-03-08 08:05:58 51°15.154 2°53.201 -999 0.491459 3.174749 22.275982
2006-03-08 08:06:03 51°15.163 2°53.176 -999 0.491459 3.174812 22.107435
2006-03-08 08:06:08 51°15.173 2°53.151 -999 0.491459 3.174812 22.174853
2006-03-08 08:06:12 51°15.18 2°53.132 -999 0.491459 3.174812 22.275982
2006-03-08 08:06:18 51°15.192 2°53.102 -999 0.491459 3.174812 22.275982
2006-03-08 08:06:22 51°15.199 2°53.083 -999 0.491459 3.174812 22.006306
2006-03-08 08:06:28 51°15.21 2°53.054 -999 0.491459 3.174875 22.208563
2006-03-08 08:06:33 51°15.219 2°53.03 -999 0.491459 3.174938 22.141144
2006-03-08 08:06:38 51°15.229 2°53.006 -999 0.491459 3.174938 21.736631
2006-03-08 08:06:43 51°15.238 2°52.982 -999 0.491459 3.174938 22.107435
2006-03-08 08:06:48 51°15.248 2°52.958 -999 0.491459 3.174938 22.107435
2006-03-08 08:06:52 51°15.256 2°52.939 -999 0.491459 3.175001 22.275982
2006-03-08 08:06:58 51°15.267 2°52.91 -999 0.491459 3.175001 21.905178
2006-03-08 08:07:02 51°15.275 2°52.891 -999 0.491459 3.175064 22.545657
2006-03-08 08:07:08 51°15.286 2°52.862 -999 0.491459 3.175064 22.646785
2006-03-08 08:07:12 51°15.293 2°52.843 -999 0.491459 3.175128 22.882751
2006-03-08 08:07:18 51°15.304 2°52.813 -999 0.491459 3.175128 22.882751
2006-03-08 08:07:23 51°15.312 2°52.789 -999 0.491459 3.175128 22.680494
2006-03-08 08:07:28 51°15.321 2°52.764 -999 0.491459 3.175191 22.242272
2006-03-08 08:07:32 51°15.327 2°52.744 -999 0.491459 3.175191 22.040016
2006-03-08 08:07:38 51°15.337 2°52.714 -999 0.491459 3.175254 22.444529
2006-03-08 08:07:43 51°15.345 2°52.688 -999 0.491459 3.175254 22.174853
2006-03-08 08:07:48 51°15.353 2°52.664 -999 0.491459 3.175254 22.174853
2006-03-08 08:07:52 51°15.359 2°52.643 -999 0.491459 3.175317 21.197281
2006-03-08 08:07:58 51°15.368 2°52.612 -999 0.491459 3.17538 22.882751
2006-03-08 08:08:02 51°15.373 2°52.591 -999 0.491459 3.17538 22.444529
2006-03-08 08:08:08 51°15.381 2°52.56 -999 0.491459 3.17538 22.579366
2006-03-08 08:08:12 51°15.386 2°52.539 -999 0.491459 3.17538 22.37711
2006-03-08 08:08:18 51°15.393 2°52.508 -999 0.491459 3.17538 22.37711
2006-03-08 08:08:22 51°15.398 2°52.487 -999 0.491459 3.17538 21.736631
2006-03-08 08:08:28 51°15.405 2°52.455 -999 0.491459 3.175569 20.893896
2006-03-08 08:08:32 51°15.41 2°52.434 -999 0.491459 3.175632 22.882751
2006-03-08 08:08:38 51°15.416 2°52.402 -999 0.491459 3.175632 23.051298
2006-03-08 08:08:42 51°15.419 2°52.381 -999 0.491459 3.175632 22.006306
2006-03-08 08:08:48 51°15.425 2°52.349 -999 0.491459 3.175632 22.006306
2006-03-08 08:08:52 51°15.427 2°52.327 -999 0.491459 3.175696 16.208289
2006-03-08 08:08:58 51°15.431 2°52.295 -999 0.491459 3.175696 22.983879
2006-03-08 08:09:02 51°15.433 2°52.273 -999 0.491459 3.175759 23.624358
2006-03-08 08:09:08 51°15.435 2°52.24 -999 0.491459 3.175759 23.320973
2006-03-08 08:09:12 51°15.436 2°52.219 -999 0.491459 3.175822 23.691777
2006-03-08 08:09:18 51°15.438 2°52.186 -999 0.491459 3.175822 23.691777
2006-03-08 08:09:23 51°15.438 2°52.159 -999 0.491459 3.175822 22.781623
2006-03-08 08:09:28 51°15.439 2°52.131 -999 0.491459 3.175885 22.714204
2006-03-08 08:09:33 51°15.44 2°52.104 -999 0.491459 3.175948 22.174853
2006-03-08 08:09:38 51°15.441 2°52.077 -999 0.491459 3.175948 22.444529
2006-03-08 08:09:43 51°15.441 2°52.05 -999 0.491459 3.176074 22.815332
2006-03-08 08:09:48 51°15.441 2°52.023 -999 0.491459 3.176074 22.815332
2006-03-08 08:09:52 51°15.441 2°52.001 -999 0.491562 3.176783 22.444529
2006-03-08 08:09:58 51°15.441 2°51.968 -999 0.491562 3.176783 22.073725
2006-03-08 08:10:03 51°15.441 2°51.941 -999 0.491562 3.176847 20.927606
2006-03-08 08:10:08 51°15.44 2°51.914 -999 0.491562 3.17691 22.444529
2006-03-08 08:10:13 51°15.438 2°51.887 -999 0.491562 3.17691 22.242272
2006-03-08 08:10:18 51°15.437 2°51.86 -999 0.491562 3.17691 22.242272
2006-03-08 08:10:22 51°15.436 2°51.839 -999 0.491562 3.17691 21.972597
2006-03-08 08:10:28 51°15.433 2°51.806 -999 0.491562 3.176973 22.107435
2006-03-08 08:10:33 51°15.431 2°51.779 -999 0.491562 3.176973 22.3434
2006-03-08 08:10:38 51°15.429 2°51.752 -999 0.491562 3.177036 22.006306
2006-03-08 08:10:43 51°15.428 2°51.725 -999 0.491562 3.177036 22.073725
2006-03-08 08:10:48 51°15.425 2°51.698 -999 0.491562 3.177036 22.073725
2006-03-08 08:10:52 51°15.424 2°51.676 -999 0.491562 3.177099 22.208563
2006-03-08 08:10:58 51°15.422 2°51.643 -999 0.491562 3.177162 22.174853
2006-03-08 08:11:02 51°15.421 2°51.622 -999 0.491562 3.177162 22.141144
2006-03-08 08:11:08 51°15.419 2°51.589 -999 0.491562 3.177226 22.141144
2006-03-08 08:11:12 51°15.418 2°51.567 -999 0.491562 3.177289 22.174853
2006-03-08 08:11:18 51°15.417 2°51.534 -999 0.491562 3.177289 22.174853
2006-03-08 08:11:23 51°15.417 2°51.507 -999 0.491562 3.177289 22.37711
2006-03-08 08:11:28 51°15.416 2°51.48 -999 0.491562 3.177352 21.837759
2006-03-08 08:11:33 51°15.415 2°51.452 -999 0.491562 3.177352 22.309691
2006-03-08 08:11:38 51°15.415 2°51.425 -999 0.491562 3.177415 22.174853
2006-03-08 08:11:43 51°15.414 2°51.398 -999 0.491562 3.177478 22.444529
2006-03-08 08:11:48 51°15.413 2°51.37 -999 0.491562 3.177478 22.444529
2006-03-08 08:11:52 51°15.412 2°51.348 -999 0.491562 3.177478 21.736631
2006-03-08 08:11:58 51°15.411 2°51.315 -999 0.491562 3.177542 22.613076
2006-03-08 08:12:03 51°15.41 2°51.288 -999 0.504636 3.282798 28.748187
2006-03-08 08:12:08 51°15.409 2°51.261 -999 0.522857 3.395983 26.691913
2006-03-08 08:12:13 51°15.408 2°51.234 -999 0.876665 5.89716 35.422648
2006-03-08 08:12:18 51°15.407 2°51.207 -999 0.876665 5.89716 35.422648
2006-03-08 08:12:23 51°15.407 2°51.179 -999 1.729933 12.734114 25.006443
2006-03-08 08:12:28 51°15.406 2°51.152 -999 2.311474 18.674721 21.433247
2006-03-08 08:12:33 51°15.406 2°51.124 -999 2.790431 24.752357 20.725349
2006-03-08 08:12:38 51°15.405 2°51.097 -999 3.061186 29.124482 18.702785
2006-03-08 08:12:43 51°15.404 2°51.069 -999 3.045891 30.192511 18.197144
2006-03-08 08:12:48 51°15.404 2°51.042 -999 3.045891 30.192511 18.197144
2006-03-08 08:12:53 51°15.403 2°51.014 -999 3.033589 30.720001 17.961178
2006-03-08 08:12:58 51°15.402 2°50.987 -999 2.990256 30.731786 17.691503
2006-03-08 08:13:02 51°15.402 2°50.965 -999 2.982192 30.984127 17.455537
2006-03-08 08:13:08 51°15.401 2°50.932 -999 2.950857 30.838889 17.253281
2006-03-08 08:13:13 51°15.399 2°50.905 -999 2.938344 30.812254 17.118443
2006-03-08 08:13:18 51°15.398 2°50.878 -999 2.938344 30.812254 17.118443
2006-03-08 08:13:23 51°15.397 2°50.85 -999 2.921385 30.702967 16.949896
2006-03-08 08:13:28 51°15.396 2°50.823 -999 2.923558 30.785564 16.74764
2006-03-08 08:13:32 51°15.395 2°50.801 -999 2.916112 30.761985 16.545383
2006-03-08 08:13:38 51°15.393 2°50.768 -999 2.914562 30.805269 16.343127
2006-03-08 08:13:43 51°15.392 2°50.741 -999 2.909702 30.776995 16.140871
2006-03-08 08:13:48 51°15.392 2°50.713 -999 2.909702 30.776995 16.140871
2006-03-08 08:13:52 51°15.391 2°50.691 -999 2.9066 30.770139 15.938614
2006-03-08 08:13:58 51°15.39 2°50.658 -999 2.902981 30.750801 15.736358
2006-03-08 08:14:03 51°15.39 2°50.631 -999 2.89688 30.697829 15.534101
2006-03-08 08:14:08 51°15.389 2°50.604 -999 2.897707 30.713928 15.331845
2006-03-08 08:14:13 51°15.388 2°50.576 -999 2.901844 30.777032 15.095879
2006-03-08 08:14:18 51°15.387 2°50.549 -999 2.901844 30.777032 15.095879
2006-03-08 08:14:23 51°15.386 2°50.522 -999 2.895122 30.717669 14.859913
2006-03-08 08:14:28 51°15.386 2°50.494 -999 2.886643 30.637672 14.623947
2006-03-08 08:14:32 51°15.385 2°50.472 -999 2.894916 30.751141 14.387982
2006-03-08 08:14:38 51°15.384 2°50.439 -999 2.904533 30.873142 14.219435
2006-03-08 08:14:43 51°15.383 2°50.412 -999 2.897294 30.800248 13.983469
2006-03-08 08:14:48 51°15.382 2°50.385 -999 2.897294 30.800248 13.983469
2006-03-08 08:14:53 51°15.381 2°50.357 -999 2.903913 30.888086 13.814922
2006-03-08 08:14:58 51°15.38 2°50.329 -999 2.903603 30.901131 13.612665
2006-03-08 08:15:02 51°15.378 2°50.307 -999 2.897295 30.837239 13.444118
2006-03-08 08:15:08 51°15.377 2°50.274 -999 2.895227 30.828687 13.275571
2006-03-08 08:15:12 51°15.376 2°50.252 -999 2.901431 30.909028 13.107024
2006-03-08 08:15:18 51°15.375 2°50.219 -999 2.901431 30.909028 13.107024
2006-03-08 08:15:22 51°15.375 2°50.197 -999 2.857381 30.394471 12.938477
2006-03-08 08:15:28 51°15.375 2°50.164 -999 2.907222 30.978979 12.76993
2006-03-08 08:15:33 51°15.375 2°50.136 -999 2.906498 30.973259 12.635093
2006-03-08 08:15:38 51°15.374 2°50.109 -999 2.90774 30.999966 12.466546
2006-03-08 08:15:43 51°15.374 2°50.081 -999 2.906705 30.989663 12.331708
2006-03-08 08:15:48 51°15.373 2°50.053 -999 2.906705 30.989663 12.331708
2006-03-08 08:15:53 51°15.372 2°50.026 -999 2.907843 31.004912 12.163161
2006-03-08 08:15:58 51°15.372 2°49.998 -999 2.907533 31.005924 12.028324
2006-03-08 08:16:02 51°15.371 2°49.976 -999 2.907016 31.010098 11.893486
2006-03-08 08:16:08 51°15.37 2°49.943 -999 2.907326 31.020284 11.724939
2006-03-08 08:16:13 51°15.369 2°49.915 -999 2.907119 31.02345 11.623811
2006-03-08 08:16:18 51°15.368 2°49.888 -999 2.907119 31.02345 11.623811
2006-03-08 08:16:23 51°15.368 2°49.86 -999 2.906913 31.030355 11.488973
2006-03-08 08:16:28 51°15.367 2°49.832 -999 2.906085 31.026214 11.354136
2006-03-08 08:16:32 51°15.367 2°49.81 -999 2.906499 31.031088 11.219298
2006-03-08 08:16:38 51°15.367 2°49.777 -999 2.906292 31.033324 11.11817
2006-03-08 08:16:43 51°15.367 2°49.749 -999 2.906396 31.038283 11.017042
2006-03-08 08:16:48 51°15.367 2°49.722 -999 2.906396 31.038283 11.017042
2006-03-08 08:16:52 51°15.368 2°49.7 -999 2.906086 31.037431 10.915913
2006-03-08 08:16:58 51°15.369 2°49.667 -999 2.905465 31.028248 10.781076
2006-03-08 08:17:03 51°15.369 2°49.639 -999 2.905568 31.030402 10.713657
2006-03-08 08:17:08 51°15.37 2°49.611 -999 2.905775 31.03284 10.612529
2006-03-08 08:17:13 51°15.37 2°49.584 -999 2.904638 31.023171 10.5114
2006-03-08 08:17:18 51°15.371 2°49.556 -999 2.904638 31.023171 10.5114
2006-03-08 08:17:23 51°15.372 2°49.528 -999 2.905155 31.033006 10.410272
2006-03-08 08:17:28 51°15.372 2°49.5 -999 2.905982 31.049309 10.342853
2006-03-08 08:17:32 51°15.372 2°49.479 -999 2.906396 31.056995 10.241725
2006-03-08 08:17:38 51°15.373 2°49.446 -999 2.905775 31.04687 10.174306
2006-03-08 08:17:42 51°15.373 2°49.424 -999 2.905982 31.050245 10.106888
2006-03-08 08:17:48 51°15.374 2°49.39 -999 2.905982 31.050245 10.106888
2006-03-08 08:17:53 51°15.374 2°49.363 -999 2.905982 31.052117 10.039469
2006-03-08 08:17:58 51°15.375 2°49.335 -999 2.905155 31.040489 9.938341
2006-03-08 08:18:03 51°15.375 2°49.308 -999 2.906706 31.059717 9.870922
2006-03-08 08:18:08 51°15.375 2°49.28 -999 2.905775 31.050614 9.803503
2006-03-08 08:18:13 51°15.375 2°49.253 -999 2.906603 31.066926 9.736084
2006-03-08 08:18:18 51°15.375 2°49.225 -999 2.906603 31.066926 9.736084
2006-03-08 08:18:23 51°15.374 2°49.198 -999 2.906499 31.066643 9.702375
2006-03-08 08:18:28 51°15.373 2°49.17 -999 2.907637 31.080999 9.634956
2006-03-08 08:18:33 51°15.373 2°49.143 -999 2.90712 31.075836 9.567537
2006-03-08 08:18:38 51°15.372 2°49.115 -999 2.907947 31.087471 9.533828
2006-03-08 08:18:43 51°15.372 2°49.088 -999 2.90774 31.089719 9.466409
2006-03-08 08:18:48 51°15.371 2°49.06 -999 2.90774 31.089719 9.466409
2006-03-08 08:18:53 51°15.371 2°49.033 -999 2.906396 31.072918 9.4327
2006-03-08 08:18:58 51°15.37 2°49.005 -999 2.909705 31.108214 9.365281
2006-03-08 08:19:03 51°15.37 2°48.978 -999 2.907844 31.087189 9.331571
2006-03-08 08:19:08 51°15.37 2°48.951 -999 2.909705 31.111967 9.297862
2006-03-08 08:19:13 51°15.37 2°48.923 -999 2.911463 31.129898 9.230443
2006-03-08 08:19:18 51°15.369 2°48.896 -999 2.911463 31.129898 9.230443
2006-03-08 08:19:23 51°15.369 2°48.869 -999 2.910636 31.119197 9.196734
2006-03-08 08:19:28 51°15.368 2°48.841 -999 2.91229 31.142479 9.163024
2006-03-08 08:19:33 51°15.368 2°48.814 -999 2.910636 31.124829 9.129315
2006-03-08 08:19:38 51°15.367 2°48.787 -999 2.914255 31.167551 9.095606
2006-03-08 08:19:43 51°15.367 2°48.76 -999 2.915186 31.177597 9.028187
2006-03-08 08:19:48 51°15.366 2°48.732 -999 2.915186 31.177597 9.028187
2006-03-08 08:19:53 51°15.365 2°48.705 -999 2.917461 31.203515 8.994477
2006-03-08 08:19:58 51°15.365 2°48.678 -999 2.917151 31.201734 8.960768
2006-03-08 08:20:03 51°15.365 2°48.65 -999 2.919116 31.225875 8.927059
2006-03-08 08:20:08 51°15.364 2°48.623 -999 2.919012 31.22277 8.893349
2006-03-08 08:20:13 51°15.364 2°48.595 -999 2.92046 31.240807 8.85964
2006-03-08 08:20:18 51°15.364 2°48.568 -999 2.92046 31.240807 8.85964
2006-03-08 08:20:23 51°15.364 2°48.54 -999 2.921184 31.251241 8.82593
2006-03-08 08:20:28 51°15.364 2°48.513 -999 2.920563 31.244856 8.792221
2006-03-08 08:20:33 51°15.364 2°48.485 -999 2.921804 31.261397 8.758512
2006-03-08 08:20:38 51°15.364 2°48.457 -999 2.921287 31.256233 8.758512
2006-03-08 08:20:43 51°15.363 2°48.43 -999 2.922632 31.271169 8.724802
2006-03-08 08:20:48 51°15.363 2°48.402 -999 2.922632 31.271169 8.724802
2006-03-08 08:20:53 51°15.362 2°48.375 -999 2.922632 31.271169 8.724802
2006-03-08 08:20:58 51°15.362 2°48.347 -999 2.921494 31.258676 8.691093
2006-03-08 08:21:03 51°15.361 2°48.32 -999 2.923562 31.278388 8.691093
2006-03-08 08:21:08 51°15.36 2°48.292 -999 2.923045 31.270394 8.657383
2006-03-08 08:21:13 51°15.36 2°48.264 -999 2.923976 31.28233 8.623674
2006-03-08 08:21:18 51°15.36 2°48.237 -999 2.923976 31.28233 8.623674
2006-03-08 08:21:23 51°15.359 2°48.209 -999 2.923149 31.275389 8.589965
2006-03-08 08:21:28 51°15.359 2°48.182 -999 2.9247 31.296543 8.589965
2006-03-08 08:21:33 51°15.359 2°48.154 -999 2.921701 31.261119 8.556255
2006-03-08 08:21:38 51°15.359 2°48.126 -999 2.923976 31.287992 8.522546
2006-03-08 08:21:43 51°15.359 2°48.099 -999 2.923976 31.28988 8.488836
2006-03-08 08:21:48 51°15.359 2°48.071 -999 2.923976 31.28988 8.488836
2006-03-08 08:21:53 51°15.358 2°48.043 -999 2.923666 31.288103 8.455127
2006-03-08 08:21:58 51°15.358 2°48.015 -999 2.920357 31.246184 8.455127
2006-03-08 08:22:03 51°15.358 2°47.988 -999 2.92439 31.292879 8.421418
2006-03-08 08:22:08 51°15.357 2°47.96 -999 2.925424 31.302262 8.387708
2006-03-08 08:22:13 51°15.357 2°47.933 -999 2.923976 31.287992 8.353999
2006-03-08 08:22:18 51°15.356 2°47.905 -999 2.923976 31.287992 8.353999
2006-03-08 08:22:23 51°15.356 2°47.877 -999 2.924597 31.295322 8.353999
2006-03-08 08:22:28 51°15.355 2°47.849 -999 2.922942 31.275777 8.320289
2006-03-08 08:22:33 51°15.355 2°47.822 -999 2.924286 31.293545 8.28658
2006-03-08 08:22:38 51°15.354 2°47.794 -999 2.925838 31.311871 8.28658
2006-03-08 08:22:43 51°15.354 2°47.766 -999 2.925527 31.310095 8.252871
2006-03-08 08:22:48 51°15.353 2°47.738 -999 2.925527 31.310095 8.252871
2006-03-08 08:22:52 51°15.353 2°47.716 -999 2.924907 31.306543 8.219161
2006-03-08 08:22:58 51°15.352 2°47.683 -999 2.925321 31.315211 8.219161
2006-03-08 08:23:03 51°15.352 2°47.655 -999 2.9247 31.306933 8.185452
2006-03-08 08:23:08 51°15.353 2°47.627 -999 2.922942 31.283327 8.151742
2006-03-08 08:23:13 51°15.353 2°47.599 -999 2.925631 31.315097 8.151742
2006-03-08 08:23:18 51°15.353 2°47.571 -999 2.925631 31.315097 8.151742
2006-03-08 08:23:23 51°15.353 2°47.543 -999 2.926251 31.321483 8.118033
2006-03-08 08:23:28 51°15.353 2°47.516 -999 2.925424 31.311708 8.118033
2006-03-08 08:23:33 51°15.353 2°47.488 -999 2.925424 31.309818 8.084324
2006-03-08 08:23:38 51°15.353 2°47.46 -999 2.925217 31.308319 8.050614
2006-03-08 08:23:43 51°15.353 2°47.432 -999 2.926562 31.324204 8.050614
2006-03-08 08:23:48 51°15.352 2°47.404 -999 2.926562 31.324204 8.050614
2006-03-08 08:23:53 51°15.352 2°47.376 -999 2.925941 31.316873 8.050614
2006-03-08 08:23:58 51°15.352 2°47.349 -999 2.926045 31.318094 8.016905
2006-03-08 08:24:03 51°15.352 2°47.321 -999 2.926665 31.326371 7.983195
2006-03-08 08:24:08 51°15.352 2°47.293 -999 2.926562 31.327986 7.983195
2006-03-08 08:24:13 51°15.352 2°47.265 -999 2.925941 31.323489 7.949486
2006-03-08 08:24:18 51°15.352 2°47.237 -999 2.925941 31.323489 7.949486
2006-03-08 08:24:23 51°15.352 2°47.209 -999 2.92439 31.307047 7.949486
2006-03-08 08:24:28 51°15.352 2°47.181 -999 2.925321 31.320883 7.949486
2006-03-08 08:24:33 51°15.352 2°47.154 -999 2.924597 31.310436 7.915777
2006-03-08 08:24:38 51°15.352 2°47.126 -999 2.924287 31.30866 7.915777
2006-03-08 08:24:42 51°15.351 2°47.104 -999 2.925941 31.328217 7.915777
2006-03-08 08:24:48 51°15.351 2°47.07 -999 2.925941 31.328217 7.915777
2006-03-08 08:24:53 51°15.351 2°47.043 -999 2.92408 31.30527 7.882067
2006-03-08 08:24:58 51°15.351 2°47.015 -999 2.925941 31.329163 7.882067
2006-03-08 08:25:02 51°15.351 2°46.992 -999 2.926251 31.335668 7.882067
2006-03-08 08:25:08 51°15.351 2°46.959 -999 2.925011 31.322889 7.882067
2006-03-08 08:25:13 51°15.351 2°46.932 -999 2.925838 31.333616 7.848358
2006-03-08 08:25:18 51°15.351 2°46.904 -999 2.925838 31.333616 7.848358
2006-03-08 08:25:23 51°15.351 2°46.876 -999 2.925734 31.332393 7.848358
2006-03-08 08:25:28 51°15.351 2°46.848 -999 2.926045 31.337007 7.848358
2006-03-08 08:25:32 51°15.351 2°46.826 -999 2.925114 31.326004 7.848358
2006-03-08 08:25:38 51°15.351 2°46.793 -999 2.925424 31.329671 7.814648
2006-03-08 08:25:43 51°15.35 2°46.766 -999 2.924597 31.319891 7.814648
2006-03-08 08:25:48 51°15.35 2°46.738 -999 2.924597 31.319891 7.814648
2006-03-08 08:25:53 51°15.35 2°46.71 -999 2.923873 31.311333 7.814648
2006-03-08 08:25:58 51°15.35 2°46.683 -999 2.923563 31.309556 7.814648
2006-03-08 08:26:03 51°15.349 2°46.655 -999 2.92377 31.312001 7.814648
2006-03-08 08:26:08 51°15.349 2°46.628 -999 2.924804 31.325173 7.814648
2006-03-08 08:26:13 51°15.349 2°46.6 -999 2.925424 31.33251 7.780939
2006-03-08 08:26:18 51°15.349 2°46.572 -999 2.925424 31.33251 7.780939
2006-03-08 08:26:23 51°15.349 2°46.545 -999 2.923976 31.314446 7.780939
2006-03-08 08:26:28 51°15.349 2°46.517 -999 2.924597 31.32462 7.780939
2006-03-08 08:26:33 51°15.349 2°46.49 -999 2.925424 31.334402 7.74723
2006-03-08 08:26:38 51°15.35 2°46.462 -999 2.92439 31.320283 7.74723
2006-03-08 08:26:43 51°15.35 2°46.435 -999 2.923563 31.311447 7.71352
2006-03-08 08:26:48 51°15.35 2°46.407 -999 2.923563 31.311447 7.71352
2006-03-08 08:26:53 51°15.351 2°46.38 -999 2.923356 31.310893 7.71352
2006-03-08 08:26:58 51°15.351 2°46.352 -999 2.922425 31.300834 7.71352
2006-03-08 08:27:03 51°15.351 2°46.325 -999 2.922942 31.305056 7.71352
2006-03-08 08:27:08 51°15.351 2°46.297 -999 2.924287 31.31906 7.679811
2006-03-08 08:27:13 51°15.351 2°46.269 -999 2.925321 31.333179 7.679811
2006-03-08 08:27:18 51°15.351 2°46.242 -999 2.925321 31.333179 7.679811
2006-03-08 08:27:23 51°15.351 2°46.215 -999 2.924494 31.326235 7.679811
2006-03-08 08:27:28 51°15.351 2°46.187 -999 2.924907 31.33302 7.679811
2006-03-08 08:27:33 51°15.351 2°46.16 -999 2.925321 31.341698 7.646101
2006-03-08 08:27:38 51°15.351 2°46.133 -999 2.923356 31.31846 7.646101
2006-03-08 08:27:43 51°15.351 2°46.105 -999 2.925011 31.338029 7.646101
2006-03-08 08:27:48 51°15.351 2°46.077 -999 2.925011 31.338029 7.646101
2006-03-08 08:27:53 51°15.352 2°46.05 -999 2.924597 31.333136 7.646101
2006-03-08 08:27:58 51°15.352 2°46.022 -999 2.9247 31.335306 7.646101
2006-03-08 08:28:03 51°15.352 2°45.995 -999 2.923977 31.326744 7.612392
2006-03-08 08:28:08 51°15.353 2°45.967 -999 2.925218 31.340475 7.612392
2006-03-08 08:28:13 51°15.353 2°45.939 -999 2.925424 31.341975 7.612392
2006-03-08 08:28:18 51°15.353 2°45.912 -999 2.925424 31.341975 7.612392
2006-03-08 08:28:23 51°15.353 2°45.884 -999 2.926252 31.350813 7.612392
2006-03-08 08:28:28 51°15.352 2°45.857 -999 2.925941 31.349984 7.612392
2006-03-08 08:28:33 51°15.352 2°45.829 -999 2.925735 31.347538 7.578683
2006-03-08 08:28:38 51°15.352 2°45.801 -999 2.926148 31.353378 7.578683
2006-03-08 08:28:43 51°15.352 2°45.774 -999 2.925528 31.346986 7.578683
2006-03-08 08:28:48 51°15.353 2°45.746 -999 2.925528 31.346986 7.578683
2006-03-08 08:28:53 51°15.353 2°45.718 -999 2.924597 31.33503 7.578683
2006-03-08 08:28:58 51°15.353 2°45.69 -999 2.927596 31.370505 7.612392
2006-03-08 08:29:03 51°15.354 2°45.662 -999 2.927079 31.36344 7.612392
2006-03-08 08:29:08 51°15.355 2°45.634 -999 2.926872 31.361941 7.646101
2006-03-08 08:29:13 51°15.356 2°45.607 -999 2.926769 31.360718 7.646101
2006-03-08 08:29:18 51°15.357 2°45.579 -999 2.926769 31.360718 7.646101
2006-03-08 08:29:23 51°15.359 2°45.551 -999 2.925011 31.338976 7.646101
2006-03-08 08:29:28 51°15.36 2°45.524 -999 2.922219 31.305952 7.646101
2006-03-08 08:29:33 51°15.362 2°45.496 -999 2.922322 31.307175 7.646101
2006-03-08 08:29:38 51°15.363 2°45.468 -999 2.927699 31.37078 7.612392
2006-03-08 08:29:43 51°15.365 2°45.44 -999 2.926769 31.35977 7.612392
2006-03-08 08:29:48 51°15.366 2°45.413 -999 2.926769 31.35977 7.612392
2006-03-08 08:29:53 51°15.367 2°45.385 -999 2.926769 31.357876 7.578683
2006-03-08 08:29:58 51°15.368 2°45.357 -999 2.927906 31.369436 7.578683
2006-03-08 08:30:03 51°15.369 2°45.33 -999 2.917151 31.241315 7.544973
2006-03-08 08:30:08 51°15.37 2°45.302 -999 2.927596 31.365767 7.511264
2006-03-08 08:30:13 51°15.372 2°45.274 -999 2.927389 31.365215 7.511264
2006-03-08 08:30:18 51°15.373 2°45.247 -999 2.927389 31.365215 7.511264
2006-03-08 08:30:23 51°15.374 2°45.219 -999 2.92832 31.377172 7.477554
2006-03-08 08:30:28 51°15.375 2°45.192 -999 2.927286 31.366835 7.443845
2006-03-08 08:30:33 51°15.377 2°45.164 -999 2.928423 31.379344 7.443845
2006-03-08 08:30:38 51°15.378 2°45.137 -999 2.929354 31.388458 7.410136
2006-03-08 08:30:43 51°15.38 2°45.109 -999 2.929044 31.38384 7.410136
2006-03-08 08:30:48 51°15.381 2°45.082 -999 2.929044 31.38384 7.410136
2006-03-08 08:30:53 51°15.383 2°45.055 -999 2.930078 31.393228 7.376426
2006-03-08 08:30:58 51°15.384 2°45.027 -999 2.930595 31.399345 7.376426
2006-03-08 08:31:03 51°15.386 2°45 -999 2.929664 31.388335 7.342717
2006-03-08 08:31:08 51°15.387 2°44.973 -999 2.929664 31.387387 7.342717
2006-03-08 08:31:13 51°15.389 2°44.946 -999 2.929457 31.383045 7.309007
2006-03-08 08:31:18 51°15.39 2°44.919 -999 2.929457 31.383045 7.309007
2006-03-08 08:31:23 51°15.392 2°44.891 -999 2.930905 31.397325 7.309007
2006-03-08 08:31:28 51°15.394 2°44.864 -999 2.932353 31.414449 7.309007
2006-03-08 08:31:33 51°15.395 2°44.837 -999 2.931733 31.40711 7.275298
2006-03-08 08:31:38 51°15.397 2°44.809 -999 2.933594 31.428178 7.275298
2006-03-08 08:31:43 51°15.399 2°44.782 -999 2.933594 31.42628 7.275298
2006-03-08 08:31:48 51°15.4 2°44.755 -999 2.933594 31.42628 7.275298
2006-03-08 08:31:53 51°15.402 2°44.728 -999 2.934318 31.432944 7.275298
2006-03-08 08:31:58 51°15.403 2°44.7 -999 2.934938 31.437435 7.275298
2006-03-08 08:32:03 51°15.405 2°44.673 -999 2.93649 31.452933 7.241589
2006-03-08 08:32:08 51°15.406 2°44.646 -999 2.936179 31.448314 7.241589
2006-03-08 08:32:13 51°15.408 2°44.619 -999 2.936903 31.456875 7.241589
2006-03-08 08:32:18 51°15.409 2°44.592 -999 2.936903 31.456875 7.241589
2006-03-08 08:32:23 51°15.41 2°44.565 -999 2.937627 31.463537 7.207879
2006-03-08 08:32:28 51°15.411 2°44.538 -999 2.938041 31.46558 7.207879
2006-03-08 08:32:33 51°15.411 2°44.51 -999 2.936386 31.443167 7.17417
2006-03-08 08:32:38 51°15.413 2°44.483 -999 2.938972 31.471837 7.17417
2006-03-08 08:32:43 51°15.414 2°44.456 -999 2.939178 31.473333 7.17417
2006-03-08 08:32:48 51°15.415 2°44.429 -999 2.939178 31.473333 7.17417
2006-03-08 08:32:53 51°15.416 2°44.402 -999 2.942695 31.512057 7.17417
2006-03-08 08:32:58 51°15.418 2°44.374 -999 2.942281 31.504314 7.14046
2006-03-08 08:33:03 51°15.419 2°44.347 -999 2.945073 31.531622 7.14046
2006-03-08 08:33:08 51°15.421 2°44.319 -999 2.945383 31.531485 7.17417
2006-03-08 08:33:13 51°15.422 2°44.292 -999 2.948486 31.566261 7.207879
2006-03-08 08:33:18 51°15.423 2°44.265 -999 2.948486 31.566261 7.207879
2006-03-08 08:33:23 51°15.424 2°44.237 -999 2.950554 31.587858 7.241589
2006-03-08 08:33:28 51°15.425 2°44.21 -999 2.952002 31.60307 7.275298
2006-03-08 08:33:33 51°15.426 2°44.182 -999 2.953243 31.614883 7.309007
2006-03-08 08:33:38 51°15.427 2°44.154 -999 2.954898 31.631585 7.342717
2006-03-08 08:33:43 51°15.428 2°44.127 -999 2.954587 31.626964 7.376426
2006-03-08 08:33:48 51°15.429 2°44.099 -999 2.954587 31.626964 7.376426
2006-03-08 08:33:53 51°15.431 2°44.072 -999 2.955932 31.64095 7.376426
2006-03-08 08:33:58 51°15.432 2°44.044 -999 2.956242 31.641757 7.376426
2006-03-08 08:34:03 51°15.434 2°44.016 -999 2.957587 31.655742 7.376426
2006-03-08 08:34:08 51°15.436 2°43.989 -999 2.958 31.660632 7.410136
2006-03-08 08:34:13 51°15.437 2°43.962 -999 2.959035 31.672858 7.410136
2006-03-08 08:34:18 51°15.439 2°43.934 -999 2.959035 31.672858 7.410136
2006-03-08 08:34:23 51°15.44 2°43.907 -999 2.958104 31.659946 7.410136
2006-03-08 08:34:28 51°15.442 2°43.879 -999 2.959965 31.680997 7.410136
2006-03-08 08:34:33 51°15.443 2°43.852 -999 2.960689 31.6886 7.443845
2006-03-08 08:34:38 51°15.445 2°43.824 -999 2.961 31.692268 7.410136
2006-03-08 08:34:43 51°15.446 2°43.797 -999 2.959345 31.672707 7.410136
2006-03-08 08:34:48 51°15.447 2°43.769 -999 2.959345 31.672707 7.410136
2006-03-08 08:34:53 51°15.449 2°43.741 -999 2.960586 31.686423 7.410136
2006-03-08 08:34:58 51°15.45 2°43.714 -999 2.961827 31.702049 7.410136
2006-03-08 08:35:03 51°15.452 2°43.686 -999 2.961206 31.694713 7.376426
2006-03-08 08:35:08 51°15.453 2°43.659 -999 2.961723 31.699871 7.410136
2006-03-08 08:35:13 51°15.455 2°43.631 -999 2.959965 31.678133 7.410136
2006-03-08 08:35:18 51°15.456 2°43.604 -999 2.959965 31.678133 7.410136
2006-03-08 08:35:23 51°15.458 2°43.576 -999 2.962551 31.707741 7.443845
2006-03-08 08:35:28 51°15.46 2°43.548 -999 2.958931 31.664 7.443845
2006-03-08 08:35:33 51°15.461 2°43.521 -999 2.960689 31.683826 7.443845
2006-03-08 08:35:38 51°15.463 2°43.493 -999 2.962241 31.701207 7.477554
2006-03-08 08:35:43 51°15.465 2°43.466 -999 2.964619 31.72837 7.477554
2006-03-08 08:35:48 51°15.466 2°43.438 -999 2.964619 31.72837 7.477554
2006-03-08 08:35:53 51°15.467 2°43.41 -999 2.965447 31.738151 7.477554
2006-03-08 08:35:58 51°15.468 2°43.382 -999 2.965757 31.740862 7.477554
2006-03-08 08:36:03 51°15.469 2°43.355 -999 2.965653 31.738683 7.511264
2006-03-08 08:36:08 51°15.47 2°43.327 -999 2.964206 31.720612 7.511264
2006-03-08 08:36:13 51°15.471 2°43.299 -999 2.966377 31.744372 7.511264
2006-03-08 08:36:18 51°15.471 2°43.272 -999 2.966377 31.744372 7.511264
2006-03-08 08:36:23 51°15.471 2°43.244 -999 2.967412 31.754684 7.511264
2006-03-08 08:36:28 51°15.471 2°43.216 -999 2.967825 31.759574 7.544973
2006-03-08 08:36:33 51°15.471 2°43.189 -999 2.967618 31.755216 7.544973
2006-03-08 08:36:38 51°15.471 2°43.161 -999 2.967618 31.755216 7.544973
2006-03-08 08:36:43 51°15.471 2°43.133 -999 2.969066 31.773288 7.578683
2006-03-08 08:36:48 51°15.471 2°43.106 -999 2.969066 31.773288 7.578683
2006-03-08 08:36:53 51°15.471 2°43.078 -999 2.96979 31.778974 7.578683
2006-03-08 08:36:58 51°15.471 2°43.051 -999 2.970101 31.780727 7.578683
2006-03-08 08:37:03 51°15.471 2°43.023 -999 2.968446 31.760212 7.544973
2006-03-08 08:37:08 51°15.471 2°42.996 -999 2.970204 31.779077 7.578683
2006-03-08 08:37:13 51°15.471 2°42.968 -999 2.959758 31.656608 7.578683
2006-03-08 08:37:18 51°15.471 2°42.941 -999 2.959758 31.656608 7.578683
2006-03-08 08:37:23 51°15.471 2°42.912 -999 2.965446 31.723812 7.578683
2006-03-08 08:37:28 51°15.471 2°42.885 -999 2.962034 31.683487 7.578683
2006-03-08 08:37:33 51°15.471 2°42.857 -999 2.969894 31.778282 7.612392
2006-03-08 08:37:38 51°15.471 2°42.829 -999 2.968032 31.756279 7.612392
2006-03-08 08:37:43 51°15.471 2°42.801 -999 2.970307 31.783171 7.578683
2006-03-08 08:37:48 51°15.471 2°42.774 -999 2.970307 31.783171 7.578683
2006-03-08 08:37:53 51°15.471 2°42.746 -999 2.969894 31.777325 7.578683
2006-03-08 08:37:58 51°15.471 2°42.719 -999 2.971962 31.800816 7.578683
2006-03-08 08:38:03 51°15.472 2°42.691 -999 2.966274 31.734545 7.578683
2006-03-08 08:38:08 51°15.472 2°42.663 -999 2.968446 31.759255 7.612392
2006-03-08 08:38:13 51°15.472 2°42.636 -999 2.971031 31.789814 7.612392
2006-03-08 08:38:18 51°15.472 2°42.608 -999 2.971031 31.789814 7.612392
2006-03-08 08:38:23 51°15.472 2°42.581 -999 2.971342 31.794439 7.646101
2006-03-08 08:38:28 51°15.472 2°42.553 -999 2.963688 31.703993 7.646101
2006-03-08 08:38:33 51°15.472 2°42.525 -999 2.968549 31.762391 7.646101
2006-03-08 08:38:38 51°15.473 2°42.498 -999 2.967929 31.755057 7.612392
2006-03-08 08:38:43 51°15.473 2°42.47 -999 2.970514 31.782744 7.612392
2006-03-08 08:38:48 51°15.473 2°42.442 -999 2.970514 31.782744 7.612392
2006-03-08 08:38:53 51°15.473 2°42.414 -999 2.971445 31.793746 7.612392
2006-03-08 08:38:58 51°15.473 2°42.386 -999 2.969377 31.768342 7.612392
2006-03-08 08:39:03 51°15.473 2°42.358 -999 2.971652 31.793318 7.578683
2006-03-08 08:39:08 51°15.473 2°42.331 -999 2.972686 31.805542 7.646101
2006-03-08 08:39:13 51°15.474 2°42.303 -999 2.971031 31.785984 7.71352
2006-03-08 08:39:18 51°15.475 2°42.275 -999 2.971031 31.785984 7.71352
2006-03-08 08:39:23 51°15.476 2°42.247 -999 2.970721 31.781361 7.74723
2006-03-08 08:39:28 51°15.477 2°42.219 -999 2.972066 31.798208 7.74723
2006-03-08 08:39:32 51°15.478 2°42.197 -999 2.969066 31.763719 7.780939
2006-03-08 08:39:38 51°15.481 2°42.164 -999 2.9731 31.810431 7.780939
2006-03-08 08:39:43 51°15.484 2°42.136 -999 2.971135 31.78625 7.780939
2006-03-08 08:39:48 51°15.487 2°42.108 -999 2.971135 31.78625 7.780939
2006-03-08 08:39:53 51°15.49 2°42.081 -999 2.972996 31.808251 7.74723
2006-03-08 08:39:58 51°15.493 2°42.054 -999 2.972686 31.801711 7.74723
2006-03-08 08:40:03 51°15.496 2°42.027 -999 2.971962 31.791241 7.71352
2006-03-08 08:40:08 51°15.5 2°42 -999 2.97341 31.807394 7.679811
2006-03-08 08:40:13 51°15.503 2°41.972 -999 2.974651 31.82206 7.646101
2006-03-08 08:40:18 51°15.506 2°41.944 -999 2.974651 31.82206 7.646101
2006-03-08 08:40:23 51°15.509 2°41.917 -999 2.974548 31.820838 7.646101
2006-03-08 08:40:28 51°15.511 2°41.889 -999 2.973617 31.807923 7.612392
2006-03-08 08:40:32 51°15.513 2°41.867 -999 2.975789 31.830713 7.578683
2006-03-08 08:40:38 51°15.516 2°41.834 -999 2.977133 31.845643 7.578683
2006-03-08 08:40:43 51°15.518 2°41.806 -999 2.980029 31.877947 7.578683
2006-03-08 08:40:48 51°15.52 2°41.778 -999 2.980029 31.877947 7.578683
2006-03-08 08:40:53 51°15.523 2°41.75 -999 2.979409 31.866777 7.578683
2006-03-08 08:40:58 51°15.524 2°41.722 -999 2.978685 31.852471 7.578683
2006-03-08 08:41:03 51°15.526 2°41.694 -999 2.974134 31.793933 7.578683
2006-03-08 08:41:08 51°15.528 2°41.666 -999 2.982098 31.88416 7.578683
2006-03-08 08:41:13 51°15.529 2°41.639 -999 2.983959 31.904232 7.612392
2006-03-08 08:41:18 51°15.53 2°41.611 -999 2.983959 31.904232 7.612392
2006-03-08 08:41:23 51°15.531 2°41.583 -999 2.98489 31.913309 7.646101
2006-03-08 08:41:28 51°15.532 2°41.556 -999 2.987269 31.938528 7.679811
2006-03-08 08:41:33 51°15.534 2°41.53 -999 2.9852 31.912174 7.646101
2006-03-08 08:41:38 51°15.535 2°41.504 -999 2.988303 31.946903 7.646101
2006-03-08 08:41:43 51°15.536 2°41.478 -999 2.987889 31.939135 7.612392
2006-03-08 08:41:48 51°15.538 2°41.453 -999 2.987889 31.939135 7.612392
2006-03-08 08:41:53 51°15.539 2°41.43 -999 2.989234 31.951173 7.612392
2006-03-08 08:41:58 51°15.541 2°41.408 -999 2.989234 31.949252 7.612392
2006-03-08 08:42:03 51°15.543 2°41.386 -999 2.989958 31.956841 7.612392
2006-03-08 08:42:08 51°15.544 2°41.366 -999 2.991199 31.969577 7.612392
2006-03-08 08:42:13 51°15.546 2°41.347 -999 2.990165 31.956402 7.612392
2006-03-08 08:42:18 51°15.547 2°41.328 -999 2.990165 31.956402 7.612392
2006-03-08 08:42:22 51°15.548 2°41.314 -999 2.990889 31.96303 7.646101
2006-03-08 08:42:28 51°15.55 2°41.293 -999 2.992337 31.979167 7.646101
2006-03-08 08:42:33 51°15.551 2°41.277 -999 2.992233 31.978907 7.646101
2006-03-08 08:42:38 51°15.552 2°41.262 -999 2.99182 31.974022 7.646101
2006-03-08 08:42:42 51°15.552 2°41.25 -999 2.992026 31.975503 7.646101
2006-03-08 08:42:48 51°15.552 2°41.233 -999 2.992026 31.975503 7.646101
2006-03-08 08:42:53 51°15.552 2°41.22 -999 2.98882 31.936685 7.612392
2006-03-08 08:42:58 51°15.551 2°41.208 -999 2.989027 31.940087 7.612392
2006-03-08 08:43:03 51°15.551 2°41.196 -999 2.991613 31.969657 7.578683
2006-03-08 08:43:08 51°15.55 2°41.184 -999 2.993578 31.99094 7.578683
2006-03-08 08:43:13 51°15.55 2°41.173 -999 2.992957 31.982651 7.578683
2006-03-08 08:43:18 51°15.55 2°41.163 -999 2.992957 31.982651 7.578683
2006-03-08 08:43:23 51°15.549 2°41.152 -999 2.995129 32.007336 7.578683
2006-03-08 08:43:28 51°15.55 2°41.142 -999 2.993681 31.989277 7.578683
2006-03-08 08:43:33 51°15.55 2°41.132 -999 2.998129 32.039869 7.578683
2006-03-08 08:43:38 51°15.55 2°41.123 -999 2.99637 32.017182 7.544973
2006-03-08 08:43:43 51°15.551 2°41.114 -999 2.997198 32.024065 7.544973
2006-03-08 08:43:48 51°15.551 2°41.105 -999 2.997198 32.024065 7.544973
2006-03-08 08:43:53 51°15.551 2°41.096 -999 2.998335 32.035574 7.544973
2006-03-08 08:43:58 51°15.552 2°41.087 -999 2.990785 31.944526 7.544973
2006-03-08 08:44:03 51°15.552 2°41.079 -999 2.998232 32.030503 7.544973
2006-03-08 08:44:08 51°15.552 2°41.07 -999 3.001749 32.069132 7.544973
2006-03-08 08:44:13 51°15.552 2°41.062 -999 2.99668 32.00642 7.544973
2006-03-08 08:44:18 51°15.552 2°41.054 -999 2.99668 32.00642 7.544973
2006-03-08 08:44:23 51°15.552 2°41.045 -999 2.999163 32.034757 7.544973
2006-03-08 08:44:28 51°15.553 2°41.036 -999 3.001852 32.067464 7.544973
2006-03-08 08:44:33 51°15.553 2°41.028 -999 3.001025 32.057696 7.511264
2006-03-08 08:44:38 51°15.553 2°41.019 -999 2.997922 32.019146 7.544973
2006-03-08 08:44:42 51°15.554 2°41.012 -999 3.000094 32.042858 7.511264
2006-03-08 08:44:48 51°15.554 2°41.001 -999 3.000094 32.042858 7.511264
2006-03-08 08:44:53 51°15.554 2°40.993 -999 3.002162 32.066311 7.511264
2006-03-08 08:44:58 51°15.554 2°40.984 -999 3.002369 32.068753 7.511264
2006-03-08 08:45:03 51°15.553 2°40.975 -999 3.003817 32.084883 7.544973
2006-03-08 08:45:08 51°15.553 2°40.967 -999 3.003507 32.080257 7.511264
2006-03-08 08:45:13 51°15.552 2°40.958 -999 3.002783 32.068822 7.511264
2006-03-08 08:45:18 51°15.551 2°40.95 -999 3.002783 32.068822 7.511264
2006-03-08 08:45:23 51°15.55 2°40.942 -999 2.997404 32.004392 7.511264
2006-03-08 08:45:28 51°15.549 2°40.934 -999 3.004024 32.082508 7.511264
2006-03-08 08:45:33 51°15.548 2°40.926 -999 3.001024 32.048071 7.511264
2006-03-08 08:45:38 51°15.546 2°40.919 -999 3.00361 32.077625 7.511264
2006-03-08 08:45:43 51°15.544 2°40.911 -999 3.003196 32.071779 7.544973
2006-03-08 08:45:48 51°15.542 2°40.904 -999 3.003196 32.071779 7.544973
2006-03-08 08:45:53 51°15.54 2°40.897 -999 3.004334 32.08328 7.544973
2006-03-08 08:45:58 51°15.538 2°40.89 -999 3.004541 32.082832 7.544973
2006-03-08 08:46:02 51°15.536 2°40.884 -999 3.004438 32.079686 7.544973
2006-03-08 08:46:08 51°15.532 2°40.876 -999 3.007334 32.110971 7.544973
2006-03-08 08:46:12 51°15.53 2°40.872 -999 3.004231 32.069544 7.578683
2006-03-08 08:46:18 51°15.527 2°40.865 -999 3.004231 32.069544 7.578683
2006-03-08 08:46:23 51°15.523 2°40.859 -999 3.005368 32.079116 7.578683
2006-03-08 08:46:28 51°15.52 2°40.853 -999 3.010747 32.140642 7.578683
2006-03-08 08:46:33 51°15.517 2°40.847 -999 3.008058 32.106025 7.612392
2006-03-08 08:46:38 51°15.513 2°40.842 -999 3.010126 32.127536 7.612392
2006-03-08 08:46:43 51°15.51 2°40.836 -999 3.011471 32.14147 7.612392
2006-03-08 08:46:48 51°15.507 2°40.831 -999 3.011471 32.14147 7.612392
2006-03-08 08:46:53 51°15.503 2°40.826 -999 3.010126 32.122718 7.646101
2006-03-08 08:46:58 51°15.499 2°40.82 -999 3.011367 32.13543 7.646101
2006-03-08 08:47:02 51°15.496 2°40.816 -999 3.013643 32.159377 7.646101
2006-03-08 08:47:08 51°15.492 2°40.81 -999 3.011264 32.128429 7.679811
2006-03-08 08:47:13 51°15.488 2°40.805 -999 3.013022 32.147237 7.679811
2006-03-08 08:47:18 51°15.484 2°40.801 -999 3.013022 32.147237 7.679811
2006-03-08 08:47:23 51°15.48 2°40.797 -999 3.011367 32.126759 7.679811
2006-03-08 08:47:28 51°15.477 2°40.793 -999 3.016022 32.181647 7.679811
2006-03-08 08:47:33 51°15.473 2°40.79 -999 3.01116 32.123357 7.71352
2006-03-08 08:47:38 51°15.47 2°40.786 -999 3.01447 32.162386 7.71352
2006-03-08 08:47:43 51°15.466 2°40.784 -999 3.01416 32.157762 7.71352
2006-03-08 08:47:48 51°15.463 2°40.781 -999 3.01416 32.157762 7.71352
2006-03-08 08:47:53 51°15.46 2°40.777 -999 3.014781 32.164116 7.71352
2006-03-08 08:47:58 51°15.457 2°40.774 -999 3.017573 32.196085 7.74723
2006-03-08 08:48:03 51°15.454 2°40.771 -999 3.015918 32.17464 7.74723
2006-03-08 08:48:08 51°15.452 2°40.768 -999 3.017263 32.189531 7.74723
2006-03-08 08:48:13 51°15.449 2°40.765 -999 3.017987 32.198069 7.74723
2006-03-08 08:48:18 51°15.447 2°40.762 -999 3.017987 32.198069 7.74723
2006-03-08 08:48:23 51°15.445 2°40.759 -999 3.015091 32.164883 7.780939
2006-03-08 08:48:28 51°15.444 2°40.757 -999 3.01778 32.19756 7.780939
2006-03-08 08:48:33 51°15.443 2°40.755 -999 3.017884 32.197814 7.780939
2006-03-08 08:48:38 51°15.443 2°40.754 -999 3.019021 32.210267 7.780939
2006-03-08 08:48:43 51°15.443 2°40.754 -999 3.011781 32.123933 7.780939
2006-03-08 08:48:48 51°15.444 2°40.754 -999 3.011781 32.123933 7.780939
2006-03-08 08:48:53 51°15.445 2°40.755 -999 3.018608 32.204422 7.780939
2006-03-08 08:48:58 51°15.446 2°40.757 -999 3.018918 32.207116 7.780939
2006-03-08 08:49:03 51°15.447 2°40.76 -999 3.018814 32.204931 7.780939
2006-03-08 08:49:08 51°15.449 2°40.762 -999 3.01447 32.152746 7.780939
2006-03-08 08:49:13 51°15.45 2°40.764 -999 3.020676 32.223989 7.780939
2006-03-08 08:49:18 51°15.451 2°40.767 -999 3.020676 32.223989 7.780939
2006-03-08 08:49:23 51°15.452 2°40.769 -999 3.021297 32.229376 7.780939
2006-03-08 08:49:28 51°15.453 2°40.772 -999 3.020883 32.223531 7.780939
2006-03-08 08:49:33 51°15.454 2°40.774 -999 3.020159 32.214029 7.780939
2006-03-08 08:49:38 51°15.456 2°40.776 -999 3.020262 32.214283 7.814648
2006-03-08 08:49:43 51°15.457 2°40.778 -999 3.016746 32.172825 7.780939
2006-03-08 08:49:48 51°15.458 2°40.78 -999 3.016746 32.172825 7.780939
2006-03-08 08:49:52 51°15.459 2°40.782 -999 3.018814 32.197211 7.780939
2006-03-08 08:49:58 51°15.46 2°40.785 -999 3.020883 32.2216 7.780939
2006-03-08 08:50:03 51°15.461 2°40.787 -999 3.0214 32.226732 7.780939
2006-03-08 08:50:08 51°15.462 2°40.789 -999 3.016642 32.169677 7.780939
2006-03-08 08:50:13 51°15.463 2°40.791 -999 3.023676 32.251631 7.780939
2006-03-08 08:50:18 51°15.465 2°40.794 -999 3.023676 32.251631 7.780939
2006-03-08 08:50:23 51°15.466 2°40.796 -999 3.02078 32.217485 7.780939
2006-03-08 08:50:28 51°15.467 2°40.798 -999 3.022641 32.239435 7.780939
2006-03-08 08:50:33 51°15.468 2°40.8 -999 3.019435 32.201633 7.780939
2006-03-08 08:50:38 51°15.47 2°40.802 -999 3.020883 32.218704 7.780939
2006-03-08 08:50:43 51°15.471 2°40.804 -999 3.016435 32.165312 7.780939
2006-03-08 08:50:48 51°15.472 2°40.806 -999 3.016435 32.165312 7.780939
2006-03-08 08:50:53 51°15.473 2°40.809 -999 3.019952 32.2058 7.780939
2006-03-08 08:50:58 51°15.475 2°40.811 -999 3.01747 32.175575 7.780939
2006-03-08 08:51:03 51°15.476 2°40.813 -999 3.018711 32.190204 7.780939
2006-03-08 08:51:08 51°15.477 2°40.815 -999 3.023159 32.243601 7.780939
2006-03-08 08:51:13 51°15.478 2°40.817 -999 3.017263 32.174101 7.780939
2006-03-08 08:51:18 51°15.48 2°40.819 -999 3.017263 32.174101 7.780939
2006-03-08 08:51:23 51°15.481 2°40.821 -999 3.020366 32.210677 7.780939
2006-03-08 08:51:28 51°15.482 2°40.823 -999 3.022021 32.229221 7.780939
2006-03-08 08:51:33 51°15.483 2°40.826 -999 3.022331 32.232879 7.780939
2006-03-08 08:51:38 51°15.485 2°40.828 -999 3.020469 32.210931 7.780939
2006-03-08 08:51:43 51°15.486 2°40.83 -999 3.022435 32.235064 7.780939
2006-03-08 08:51:48 51°15.487 2°40.832 -999 3.022435 32.235064 7.780939
2006-03-08 08:51:53 51°15.489 2°40.834 -999 3.020366 32.209712 7.780939
2006-03-08 08:51:58 51°15.49 2°40.836 -999 3.019331 32.195591 7.780939
2006-03-08 08:52:03 51°15.491 2°40.838 -999 3.020055 32.20316 7.780939
2006-03-08 08:52:08 51°15.492 2°40.84 -999 3.017263 32.171209 7.780939
2006-03-08 08:52:13 51°15.494 2°40.842 -999 3.015297 32.149012 7.814648
2006-03-08 08:52:18 51°15.495 2°40.844 -999 3.015297 32.149012 7.814648
2006-03-08 08:52:23 51°15.496 2°40.846 -999 3.018711 32.190204 7.780939
2006-03-08 08:52:28 51°15.497 2°40.848 -999 3.020159 32.207273 7.814648
2006-03-08 08:52:33 51°15.498 2°40.851 -999 3.019642 32.201177 7.814648
2006-03-08 08:52:38 51°15.5 2°40.853 -999 3.016746 32.167042 7.814648
2006-03-08 08:52:43 51°15.501 2°40.855 -999 3.022745 32.236791 7.814648
2006-03-08 08:52:48 51°15.502 2°40.857 -999 3.022745 32.236791 7.814648
2006-03-08 08:52:53 51°15.503 2°40.859 -999 3.016228 32.160946 7.814648
2006-03-08 08:52:58 51°15.504 2°40.861 -999 3.017573 32.177758 7.814648
2006-03-08 08:53:03 51°15.506 2°40.863 -999 3.022331 32.233845 7.814648
2006-03-08 08:53:08 51°15.507 2°40.865 -999 3.018297 32.184364 7.814648
2006-03-08 08:53:13 51°15.508 2°40.867 -999 3.018711 32.18924 7.814648
2006-03-08 08:53:18 51°15.509 2°40.869 -999 3.018711 32.18924 7.814648
2006-03-08 08:53:23 51°15.511 2°40.871 -999 3.023055 32.240449 7.848358
2006-03-08 08:53:28 51°15.512 2°40.873 -999 3.021193 32.219466 7.848358
2006-03-08 08:53:33 51°15.513 2°40.875 -999 3.021917 32.228002 7.848358
2006-03-08 08:53:38 51°15.514 2°40.877 -999 3.016952 32.16948 7.848358
2006-03-08 08:53:42 51°15.515 2°40.878 -999 3.020676 32.21337 7.848358
2006-03-08 08:53:48 51°15.516 2°40.881 -999 3.020676 32.21337 7.848358
2006-03-08 08:53:53 51°15.518 2°40.883 -999 3.020366 32.210677 7.848358
2006-03-08 08:53:58 51°15.519 2°40.884 -999 3.019125 32.19701 7.848358
2006-03-08 08:54:03 51°15.52 2°40.886 -999 3.018297 32.187256 7.848358
2006-03-08 08:54:08 51°15.521 2°40.888 -999 3.019849 32.205545 7.848358
2006-03-08 08:54:13 51°15.522 2°40.89 -999 3.020469 32.211896 7.848358
2006-03-08 08:54:18 51°15.524 2°40.892 -999 3.020469 32.211896 7.848358
2006-03-08 08:54:23 51°15.525 2°40.894 -999 3.017159 32.172882 7.882067
2006-03-08 08:54:28 51°15.526 2°40.895 -999 3.02171 32.225563 7.848358
2006-03-08 08:54:33 51°15.527 2°40.897 -999 3.018504 32.187766 7.882067
2006-03-08 08:54:38 51°15.528 2°40.899 -999 3.020366 32.209712 7.882067
2006-03-08 08:54:43 51°15.529 2°40.901 -999 3.017987 32.182635 7.882067
2006-03-08 08:54:48 51°15.531 2°40.902 -999 3.017987 32.182635 7.882067
2006-03-08 08:54:53 51°15.532 2°40.904 -999 3.018607 32.190914 7.882067
2006-03-08 08:54:58 51°15.533 2°40.905 -999 3.020056 32.207984 7.882067
2006-03-08 08:55:03 51°15.534 2°40.907 -999 3.019849 32.205545 7.882067
2006-03-08 08:55:08 51°15.535 2°40.909 -999 3.019642 32.203107 7.882067
2006-03-08 08:55:13 51°15.536 2°40.91 -999 3.020366 32.210677 7.882067
2006-03-08 08:55:18 51°15.537 2°40.912 -999 3.020366 32.210677 7.882067
2006-03-08 08:55:23 51°15.539 2°40.914 -999 3.02109 32.218247 7.882067
2006-03-08 08:55:28 51°15.54 2°40.915 -999 3.018814 32.191424 7.882067
2006-03-08 08:55:33 51°15.541 2°40.917 -999 3.017676 32.177049 7.882067
2006-03-08 08:55:38 51°15.542 2°40.918 -999 3.020986 32.216063 7.882067
2006-03-08 08:55:43 51°15.544 2°40.92 -999 3.016228 32.159983 7.915777
2006-03-08 08:55:48 51°15.545 2°40.921 -999 3.016228 32.159983 7.915777
2006-03-08 08:55:53 51°15.546 2°40.923 -999 3.019435 32.198739 7.915777
2006-03-08 08:55:58 51°15.547 2°40.924 -999 3.020469 32.211896 7.915777
2006-03-08 08:56:03 51°15.548 2°40.926 -999 3.019538 32.201887 7.915777
2006-03-08 08:56:08 51°15.549 2°40.927 -999 3.020469 32.213827 7.915777
2006-03-08 08:56:13 51°15.551 2°40.928 -999 3.011988 32.112896 7.915777
2006-03-08 08:56:18 51°15.552 2°40.93 -999 3.011988 32.112896 7.915777
2006-03-08 08:56:23 51°15.553 2°40.931 -999 3.02078 32.216519 7.915777
2006-03-08 08:56:28 51°15.554 2°40.932 -999 3.02171 32.227494 7.915777
2006-03-08 08:56:32 51°15.555 2°40.934 -999 3.022124 32.233338 7.915777
2006-03-08 08:56:38 51°15.557 2°40.935 -999 3.016539 32.167494 7.915777
2006-03-08 08:56:42 51°15.558 2°40.937 -999 3.019745 32.205291 7.915777
2006-03-08 08:56:48 51°15.559 2°40.938 -999 3.019745 32.205291 7.915777
2006-03-08 08:56:53 51°15.561 2°40.94 -999 3.012091 32.115077 7.915777
2006-03-08 08:56:58 51°15.562 2°40.941 -999 3.017573 32.179686 7.915777
2006-03-08 08:57:03 51°15.563 2°40.943 -999 3.018401 32.187511 7.915777
2006-03-08 08:57:08 51°15.564 2°40.944 -999 3.018711 32.18924 7.915777
2006-03-08 08:57:13 51°15.566 2°40.945 -999 3.017987 32.18167 7.915777
2006-03-08 08:57:18 51°15.567 2°40.946 -999 3.017987 32.18167 7.915777
2006-03-08 08:57:23 51°15.568 2°40.948 -999 3.019952 32.2058 7.915777
2006-03-08 08:57:28 51°15.569 2°40.949 -999 3.020676 32.214335 7.915777
2006-03-08 08:57:32 51°15.57 2°40.95 -999 3.018918 32.193607 7.915777
2006-03-08 08:57:38 51°15.572 2°40.952 -999 3.019642 32.203107 7.915777
2006-03-08 08:57:43 51°15.573 2°40.953 -999 3.019021 32.195791 7.915777
2006-03-08 08:57:48 51°15.574 2°40.954 -999 3.019021 32.195791 7.915777
2006-03-08 08:57:52 51°15.575 2°40.955 -999 3.019538 32.200923 7.915777
2006-03-08 08:57:58 51°15.577 2°40.957 -999 3.018711 32.191169 7.915777
2006-03-08 08:58:03 51°15.578 2°40.958 -999 3.016746 32.168969 7.915777
2006-03-08 08:58:08 51°15.579 2°40.959 -999 3.020573 32.214081 7.915777
2006-03-08 08:58:13 51°15.58 2°40.961 -999 3.018711 32.191169 7.915777
2006-03-08 08:58:18 51°15.582 2°40.962 -999 3.018711 32.191169 7.915777
2006-03-08 08:58:23 51°15.583 2°40.963 -999 3.020469 32.212861 7.949486
2006-03-08 08:58:28 51°15.584 2°40.965 -999 3.014987 32.147282 7.949486
2006-03-08 08:58:33 51°15.585 2°40.966 -999 3.018607 32.190914 7.949486
2006-03-08 08:58:38 51°15.587 2°40.966 -999 3.016746 32.169933 7.949486
2006-03-08 08:58:43 51°15.59 2°40.965 -999 3.020159 32.209203 7.949486
2006-03-08 08:58:48 51°15.593 2°40.962 -999 3.020159 32.209203 7.949486
2006-03-08 08:58:53 51°15.597 2°40.958 -999 3.016642 32.166786 7.949486
2006-03-08 08:58:58 51°15.6 2°40.953 -999 3.019331 32.19752 7.949486
2006-03-08 08:59:03 51°15.605 2°40.946 -999 3.017159 32.171918 7.949486
2006-03-08 08:59:08 51°15.609 2°40.938 -999 3.017366 32.176284 7.949486
2006-03-08 08:59:13 51°15.614 2°40.929 -999 3.015608 32.156522 7.949486
2006-03-08 08:59:18 51°15.619 2°40.92 -999 3.015608 32.156522 7.949486
2006-03-08 08:59:23 51°15.624 2°40.909 -999 3.01054 32.097757 7.949486
2006-03-08 08:59:28 51°15.629 2°40.898 -999 3.013953 32.137981 7.949486
2006-03-08 08:59:33 51°15.633 2°40.886 -999 3.011367 32.106545 7.949486
2006-03-08 08:59:38 51°15.638 2°40.872 -999 3.017366 32.176284 7.983195
2006-03-08 08:59:43 51°15.643 2°40.859 -999 3.017159 32.171918 7.983195
2006-03-08 08:59:48 51°15.648 2°40.845 -999 3.017159 32.171918 7.983195
2006-03-08 08:59:53 51°15.652 2°40.83 -999 3.018711 32.188276 7.983195
2006-03-08 08:59:58 51°15.656 2°40.815 -999 3.01809 32.181925 8.016905
2006-03-08 09:00:03 51°15.659 2°40.799 -999 3.016952 32.16948 8.050614
2006-03-08 09:00:08 51°15.662 2°40.783 -999 3.017883 32.180451 8.084324
2006-03-08 09:00:13 51°15.664 2°40.766 -999 3.01809 32.184818 8.084324
2006-03-08 09:00:18 51°15.666 2°40.75 -999 3.01809 32.184818 8.084324
2006-03-08 09:00:23 51°15.667 2°40.733 -999 3.018918 32.194572 8.084324
2006-03-08 09:00:28 51°15.667 2°40.716 -999 3.018401 32.18944 8.118033
2006-03-08 09:00:33 51°15.667 2°40.699 -999 3.018918 32.196501 8.118033
2006-03-08 09:00:38 51°15.666 2°40.683 -999 3.018194 32.18893 8.118033
2006-03-08 09:00:42 51°15.666 2°40.669 -999 3.012712 32.124316 8.118033
2006-03-08 09:00:48 51°15.664 2°40.648 -999 3.012712 32.124316 8.118033
2006-03-08 09:00:53 51°15.663 2°40.63 -999 3.016332 32.166984 8.118033
2006-03-08 09:00:58 51°15.661 2°40.61 -999 3.01747 32.180395 8.118033
2006-03-08 09:01:02 51°15.66 2°40.593 -999 3.019952 32.208695 8.118033
2006-03-08 09:01:08 51°15.657 2°40.566 -999 3.021917 32.230899 8.118033
2006-03-08 09:01:13 51°15.655 2°40.543 -999 3.018607 32.18995 8.118033
2006-03-08 09:01:18 51°15.653 2°40.518 -999 3.018607 32.18995 8.118033
2006-03-08 09:01:22 51°15.651 2°40.498 -999 3.013436 32.128998 8.118033
2006-03-08 09:01:28 51°15.648 2°40.467 -999 3.017987 32.182635 8.118033
2006-03-08 09:01:33 51°15.646 2°40.44 -999 3.021814 32.225817 8.084324
2006-03-08 09:01:38 51°15.644 2°40.413 -999 3.019952 32.200976 8.084324
2006-03-08 09:01:42 51°15.642 2°40.392 -999 3.022434 32.226375 8.084324
2006-03-08 09:01:48 51°15.64 2°40.359 -999 3.022434 32.226375 8.084324
2006-03-08 09:01:53 51°15.638 2°40.332 -999 3.023262 32.233232 8.084324
2006-03-08 09:01:58 51°15.636 2°40.304 -999 3.023676 32.236177 8.084324
2006-03-08 09:02:03 51°15.635 2°40.277 -999 3.023055 32.226933 8.050614
2006-03-08 09:02:08 51°15.633 2°40.25 -999 3.026158 32.261571 8.050614
2006-03-08 09:02:13 51°15.631 2°40.223 -999 3.026261 32.259892 8.050614
2006-03-08 09:02:18 51°15.629 2°40.195 -999 3.026261 32.259892 8.050614
2006-03-08 09:02:23 51°15.627 2°40.168 -999 3.028123 32.278934 8.050614
2006-03-08 09:02:28 51°15.624 2°40.141 -999 3.029261 32.287509 8.016905
2006-03-08 09:02:32 51°15.623 2°40.119 -999 3.026468 32.250743 7.983195
2006-03-08 09:02:38 51°15.62 2°40.086 -999 3.027813 32.262721 7.983195
2006-03-08 09:02:43 51°15.618 2°40.059 -999 3.020365 32.171162 7.983195
2006-03-08 09:02:48 51°15.616 2°40.031 -999 3.020365 32.171162 7.983195
2006-03-08 09:02:53 51°15.614 2°40.004 -999 3.027089 32.247438 7.949486
2006-03-08 09:02:58 51°15.612 2°39.977 -999 3.030709 32.286212 7.949486
2006-03-08 09:03:03 51°15.61 2°39.949 -999 3.030916 32.282854 7.949486
2006-03-08 09:03:08 51°15.609 2°39.921 -999 3.036501 32.343797 7.915777
2006-03-08 09:03:12 51°15.608 2°39.899 -999 3.03557 32.3309 7.915777
2006-03-08 09:03:18 51°15.606 2°39.866 -999 3.03557 32.3309 7.915777
2006-03-08 09:03:23 51°15.604 2°39.839 -999 3.03857 32.36429 7.949486
2006-03-08 09:03:28 51°15.603 2°39.811 -999 3.036191 32.334341 7.949486
2006-03-08 09:03:33 51°15.601 2°39.783 -999 3.037639 32.349458 7.949486
2006-03-08 09:03:38 51°15.599 2°39.756 -999 3.037536 32.346306 7.949486
2006-03-08 09:03:43 51°15.596 2°39.728 -999 3.036708 32.33463 7.983195
2006-03-08 09:03:48 51°15.594 2°39.701 -999 3.036708 32.33463 7.983195
2006-03-08 09:03:53 51°15.591 2°39.674 -999 3.040846 32.382376 7.983195
2006-03-08 09:03:58 51°15.588 2°39.646 -999 3.040329 32.376286 7.983195
2006-03-08 09:04:03 51°15.585 2°39.619 -999 3.039915 32.371415 8.016905
2006-03-08 09:04:08 51°15.582 2°39.592 -999 3.039605 32.368729 8.016905
2006-03-08 09:04:13 51°15.578 2°39.564 -999 3.033502 32.295919 8.016905
2006-03-08 09:04:18 51°15.575 2°39.537 -999 3.033502 32.295919 8.016905
2006-03-08 09:04:23 51°15.573 2°39.51 -999 3.040018 32.371665 8.016905
2006-03-08 09:04:28 51°15.57 2°39.482 -999 3.037743 32.34294 8.016905
2006-03-08 09:04:32 51°15.567 2°39.46 -999 3.036915 32.331267 8.050614
2006-03-08 09:04:38 51°15.564 2°39.427 -999 3.040018 32.36586 8.016905
2006-03-08 09:04:43 51°15.562 2°39.4 -999 3.039915 32.363675 8.050614